Observation data for Vigo Park on 12/08/2018      Previous  Date       Current Mesonet Observations  Soil Data  Daily Summary Page  Observations in Plain Language
KVP1 080600Z 07005KT M01/M02 A3031 RMK A01 T10101022  RH  092%=      5-min Rain = 0
KVP1 080601Z 07005KT M01/M02 A3031 RMK A01 T10101022  RH  092%=      5-min Rain = 0
KVP1 080602Z 07005KT M01/M02 A3031 RMK A01 T10091021  RH  092%=      5-min Rain = 0
KVP1 080603Z 06005KT M01/M02 A3031 RMK A01 T10101021  RH  092%=      5-min Rain = 0
KVP1 080604Z 06006KT M01/M02 A3031 RMK A01 T10091021  RH  092%=      5-min Rain = 0
KVP1 080605Z 06005KT M01/M02 A3031 RMK A01 T10101021  RH  092%=      5-min Rain = 0
KVP1 080606Z 07006KT M01/M02 A3031 RMK A01 T10091020  RH  092%=      5-min Rain = 0
KVP1 080607Z 05005KT M01/M02 A3031 RMK A01 T10101021  RH  092%=      5-min Rain = 0
KVP1 080608Z 06005KT M01/M02 A3031 RMK A01 T10101020  RH  092%=      5-min Rain = 0
KVP1 080609Z 06006KT M01/M02 A3031 RMK A01 T10101020  RH  093%=      5-min Rain = 0
KVP1 080610Z 07006KT M01/M02 A3031 RMK A01 T10101020  RH  092%=      5-min Rain = 0
KVP1 080611Z 06006KT M01/M02 A3031 RMK A01 T10101021  RH  092%=      5-min Rain = 0
KVP1 080612Z 06006KT M01/M02 A3031 RMK A01 T10091020  RH  093%=      5-min Rain = 0
KVP1 080613Z 06008KT M01/M02 A3031 RMK A01 T10101021  RH  093%=      5-min Rain = 0
KVP1 080614Z 06007KT M01/M02 A3031 RMK A01 T10101021  RH  092%=      5-min Rain = 0
KVP1 080615Z 05006KT M01/M02 A3031 RMK A01 T10101021  RH  092%=      5-min Rain = 0
KVP1 080616Z 06006KT M01/M02 A3031 RMK A01 T10101021  RH  092%=      5-min Rain = 0
KVP1 080617Z 06006KT M01/M02 A3031 RMK A01 T10101021  RH  093%=      5-min Rain = 0
KVP1 080618Z 06008KT M01/M02 A3031 RMK A01 T10101020  RH  093%=      5-min Rain = 0
KVP1 080619Z 05007KT M01/M02 A303 RMK A01 T10101021  RH  093%=      5-min Rain = 0
KVP1 080620Z 05007KT M01/M02 A303 RMK A01 T10101021  RH  093%=      5-min Rain = 0
KVP1 080621Z 05007KT M01/M02 A303 RMK A01 T10101021  RH  093%=      5-min Rain = 0
KVP1 080622Z 05007KT M01/M02 A303 RMK A01 T10111021  RH  093%=      5-min Rain = 0
KVP1 080623Z 05006KT M01/M02 A303 RMK A01 T10111021  RH  093%=      5-min Rain = 0
KVP1 080624Z 04007KT M01/M02 A303 RMK A01 T10111021  RH  093%=      5-min Rain = 0
KVP1 080625Z 05008KT M01/M02 A303 RMK A01 T10111020  RH  093%=      5-min Rain = 0
KVP1 080626Z 05007KT M01/M02 A303 RMK A01 T10111020  RH  093%=      5-min Rain = 0
KVP1 080627Z 05008KT M01/M02 A303 RMK A01 T10111021  RH  093%=      5-min Rain = 0
KVP1 080628Z 05007KT M01/M02 A303 RMK A01 T10111020  RH  093%=      5-min Rain = 0
KVP1 080629Z 05006KT M01/M02 A303 RMK A01 T10111020  RH  093%=      5-min Rain = 0
KVP1 080630Z 05006KT M01/M02 A303 RMK A01 T10111020  RH  093%=      5-min Rain = 0
KVP1 080631Z 05007KT M01/M02 A303 RMK A01 T10111021  RH  094%=      5-min Rain = 0
KVP1 080632Z 05007KT M01/M02 A303 RMK A01 T10111020  RH  094%=      5-min Rain = 0
KVP1 080633Z 05007KT M01/M02 A303 RMK A01 T10111020  RH  094%=      5-min Rain = 0
KVP1 080634Z 05006KT M01/M02 A303 RMK A01 T10111020  RH  094%=      5-min Rain = 0
KVP1 080635Z 05007KT M01/M02 A303 RMK A01 T10121020  RH  094%=      5-min Rain = 0
KVP1 080636Z 05007KT M01/M02 A303 RMK A01 T10121020  RH  094%=      5-min Rain = 0
KVP1 080637Z 05008KT M01/M02 A303 RMK A01 T10121020  RH  094%=      5-min Rain = 0
KVP1 080638Z 05007KT M01/M02 A303 RMK A01 T10121020  RH  094%=      5-min Rain = 0
KVP1 080639Z 05006KT M01/M02 A303 RMK A01 T10121020  RH  094%=      5-min Rain = 0
KVP1 080640Z 05006KT M01/M02 A303 RMK A01 T10121020  RH  095%=      5-min Rain = 0
KVP1 080641Z 05008KT M01/M02 A303 RMK A01 T10121020  RH  095%=      5-min Rain = 0
KVP1 080642Z 05006KT M01/M02 A303 RMK A01 T10121020  RH  095%=      5-min Rain = 0
KVP1 080643Z 05006KT M01/M02 A303 RMK A01 T10121020  RH  095%=      5-min Rain = 0
KVP1 080644Z 04006KT M01/M02 A303 RMK A01 T10121019  RH  095%=      5-min Rain = 0
KVP1 080645Z 04007KT M01/M02 A303 RMK A01 T10121019  RH  095%=      5-min Rain = 0
KVP1 080646Z 04008KT M01/M02 A303 RMK A01 T10121019  RH  095%=      5-min Rain = 0
KVP1 080647Z 05008KT M01/M02 A3029 RMK A01 T10131019  RH  095%=      5-min Rain = 0
KVP1 080648Z 04006KT M01/M02 A3029 RMK A01 T10131020  RH  095%=      5-min Rain = 0
KVP1 080649Z 04007KT M01/M02 A3029 RMK A01 T10131019  RH  095%=      5-min Rain = 0
KVP1 080650Z 03006KT M01/M02 A3029 RMK A01 T10131019  RH  095%=      5-min Rain = 0
KVP1 080651Z 04007KT M01/M02 A3029 RMK A01 T10131019  RH  095%=      5-min Rain = 0
KVP1 080652Z 04007KT M01/M02 A3029 RMK A01 T10131019  RH  096%=      5-min Rain = 0
KVP1 080653Z 04007KT M01/M02 A3029 RMK A01 T10131019  RH  096%=      5-min Rain = 0
KVP1 080654Z 04007KT M01/M02 A3029 RMK A01 T10131019  RH  096%=      5-min Rain = 0
KVP1 080655Z 04007KT M01/M02 A3029 RMK A01 T10131019  RH  096%=      5-min Rain = 0
KVP1 080656Z 04007KT M01/M02 A303 RMK A01 T10131019  RH  096%=      5-min Rain = 0
KVP1 080657Z 05008KT M01/M02 A303 RMK A01 T10131019  RH  096%=      5-min Rain = 0
KVP1 080658Z 04007KT M01/M02 A303 RMK A01 T10131019  RH  096%=      5-min Rain = 0
KVP1 080659Z 05006KT M01/M02 A303 RMK A01 T10121018  RH  096%=      5-min Rain = 0
KVP1 080700Z 04005KT M01/M02 A303 RMK A01 T10131019  RH  096%=      5-min Rain = 0
KVP1 080701Z 04004KT M01/M02 A303 RMK A01 T10131018  RH  096%=      5-min Rain = 0
KVP1 080702Z 04005KT M01/M02 A303 RMK A01 T10131018  RH  096%=      5-min Rain = 0
KVP1 080703Z 03006KT M01/M02 A303 RMK A01 T10131018  RH  096%=      5-min Rain = 0
KVP1 080704Z 03005KT M01/M02 A303 RMK A01 T10131018  RH  096%=      5-min Rain = 0
KVP1 080705Z 03006KT M01/M02 A303 RMK A01 T10131018  RH  096%=      5-min Rain = 0
KVP1 080706Z 03006KT M01/M02 A303 RMK A01 T10131018  RH  097%=      5-min Rain = 0
KVP1 080707Z 03006KT M01/M02 A3029 RMK A01 T10131018  RH  097%=      5-min Rain = 0
KVP1 080708Z 03006KT M01/M02 A3029 RMK A01 T10131017  RH  097%=      5-min Rain = 0
KVP1 080709Z 03006KT M01/M02 A3029 RMK A01 T10131018  RH  097%=      5-min Rain = 0
KVP1 080710Z 03006KT M01/M02 A3029 RMK A01 T10131017  RH  097%=      5-min Rain = 0
KVP1 080711Z 03007KT M01/M02 A3029 RMK A01 T10131017  RH  097%=      5-min Rain = 0
KVP1 080712Z 02006KT M01/M02 A3029 RMK A01 T10131017  RH  097%=      5-min Rain = 0
KVP1 080713Z 03006KT M01/M02 A3029 RMK A01 T10131017  RH  097%=      5-min Rain = 0
KVP1 080714Z 03007KT M01/M02 A3029 RMK A01 T10131017  RH  097%=      5-min Rain = 0
KVP1 080715Z 03006KT M01/M02 A3029 RMK A01 T10131017  RH  097%=      5-min Rain = 0
KVP1 080716Z 03007KT M01/M02 A3029 RMK A01 T10131017  RH  097%=      5-min Rain = 0
KVP1 080717Z 03007KT M01/M02 A3029 RMK A01 T10131017  RH  097%=      5-min Rain = 0
KVP1 080718Z 03008KT M01/M02 A3029 RMK A01 T10131017  RH  097%=      5-min Rain = 0
KVP1 080719Z 03008KT M01/M02 A3028 RMK A01 T10131017  RH  097%=      5-min Rain = 0
KVP1 080720Z 03008KT M01/M02 A3028 RMK A01 T10131017  RH  097%=      5-min Rain = 0
KVP1 080721Z 02008KT M01/M02 A3028 RMK A01 T10131017  RH  097%=      5-min Rain = 0
KVP1 080722Z 03007KT M01/M02 A3028 RMK A01 T10131017  RH  097%=      5-min Rain = 0
KVP1 080723Z 03007KT M01/M02 A3028 RMK A01 T10131017  RH  097%=      5-min Rain = 0
KVP1 080724Z 03007KT M01/M02 A3028 RMK A01 T10131017  RH  098%=      5-min Rain = 0
KVP1 080725Z 03007KT M01/M02 A3028 RMK A01 T10131017  RH  098%=      5-min Rain = 0
KVP1 080726Z 03008KT M01/M02 A3028 RMK A01 T10131017  RH  098%=      5-min Rain = 0
KVP1 080727Z 03007KT M01/M02 A3028 RMK A01 T10131017  RH  098%=      5-min Rain = 0
KVP1 080728Z 03009KT M01/M02 A3028 RMK A01 T10131017  RH  098%=      5-min Rain = 0
KVP1 080729Z 03008KT M01/M02 A3028 RMK A01 T10131016  RH  098%=      5-min Rain = 0
KVP1 080730Z 03008KT M01/M02 A3028 RMK A01 T10131016  RH  098%=      5-min Rain = 0
KVP1 080731Z 03008KT M01/M02 A3028 RMK A01 T10131017  RH  098%=      5-min Rain = 0
KVP1 080732Z 03009KT M01/M02 A3028 RMK A01 T10131016  RH  098%=      5-min Rain = 0
KVP1 080733Z 03008KT M01/M02 A3028 RMK A01 T10131017  RH  098%=      5-min Rain = 0
KVP1 080734Z 04008KT M01/M02 A3028 RMK A01 T10131016  RH  098%=      5-min Rain = 0
KVP1 080735Z 04007KT M01/M02 A3028 RMK A01 T10131016  RH  098%=      5-min Rain = 0
KVP1 080736Z 04008KT M01/M02 A3028 RMK A01 T10131016  RH  098%=      5-min Rain = 0
KVP1 080737Z 04008KT M01/M02 A3028 RMK A01 T10131017  RH  098%=      5-min Rain = 0
KVP1 080738Z 03008KT M01/M02 A3028 RMK A01 T10141017  RH  098%=      5-min Rain = 0
KVP1 080739Z 04007KT M01/M02 A3028 RMK A01 T10141017  RH  098%=      5-min Rain = 0
KVP1 080740Z 04008KT M01/M02 A3029 RMK A01 T10141017  RH  098%=      5-min Rain = 0
KVP1 080741Z 03008KT M01/M02 A3029 RMK A01 T10141017  RH  098%=      5-min Rain = 0
KVP1 080742Z 03006KT M01/M02 A3029 RMK A01 T10141017  RH  098%=      5-min Rain = 0
KVP1 080743Z 03007KT M01/M02 A3029 RMK A01 T10141017  RH  098%=      5-min Rain = 0
KVP1 080744Z 03007KT M01/M02 A3029 RMK A01 T10141017  RH  098%=      5-min Rain = 0
KVP1 080745Z 03007KT M01/M02 A3029 RMK A01 T10141017  RH  098%=      5-min Rain = 0
KVP1 080746Z 02006KT M01/M02 A3029 RMK A01 T10141017  RH  098%=      5-min Rain = 0
KVP1 080747Z 03006KT M01/M02 A3028 RMK A01 T10141017  RH  098%=      5-min Rain = 0
KVP1 080748Z 03005KT M01/M02 A3028 RMK A01 T10141017  RH  098%=      5-min Rain = 0
KVP1 080749Z 03007KT M01/M02 A3028 RMK A01 T10141017  RH  098%=      5-min Rain = 0
KVP1 080750Z 02007KT M01/M02 A3028 RMK A01 T10141017  RH  098%=      5-min Rain = 0
KVP1 080751Z 03007KT M01/M02 A3028 RMK A01 T10141017  RH  098%=      5-min Rain = 0
KVP1 080752Z 03008KT M01/M02 A3028 RMK A01 T10141017  RH  098%=      5-min Rain = 0
KVP1 080753Z 03008KT M01/M02 A3028 RMK A01 T10141017  RH  098%=      5-min Rain = 0
KVP1 080754Z 03008KT M01/M02 A3028 RMK A01 T10141017  RH  098%=      5-min Rain = 0
KVP1 080755Z 03007KT M01/M02 A3028 RMK A01 T10141017  RH  098%=      5-min Rain = 0
KVP1 080756Z 03009KT M01/M02 A3028 RMK A01 T10141017  RH  098%=      5-min Rain = 0
KVP1 080757Z 02008KT M02/M02 A3028 RMK A01 T10151017  RH  098%=      5-min Rain = 0
KVP1 080758Z 03009KT M02/M02 A3028 RMK A01 T10151017  RH  098%=      5-min Rain = 0
KVP1 080759Z 03008KT M02/M02 A3028 RMK A01 T10151017  RH  098%=      5-min Rain = 0
KVP1 080800Z 02007KT M02/M02 A3028 RMK A01 T10151017  RH  098%=      5-min Rain = 0
KVP1 080801Z 03008KT M02/M02 A3028 RMK A01 T10151017  RH  098%=      5-min Rain = 0
KVP1 080802Z 02006KT M02/M02 A3028 RMK A01 T10151017  RH  098%=      5-min Rain = 0
KVP1 080803Z 02008KT M02/M02 A3028 RMK A01 T10151017  RH  098%=      5-min Rain = 0
KVP1 080804Z 02008KT M02/M02 A3028 RMK A01 T10151017  RH  098%=      5-min Rain = 0
KVP1 080805Z 02007KT M02/M02 A3028 RMK A01 T10151018  RH  098%=      5-min Rain = 0
KVP1 080806Z 02006KT M02/M02 A3028 RMK A01 T10151018  RH  098%=      5-min Rain = 0
KVP1 080807Z 02007KT M02/M02 A3028 RMK A01 T10151018  RH  098%=      5-min Rain = 0
KVP1 080808Z 02005KT M02/M02 A3028 RMK A01 T10151017  RH  098%=      5-min Rain = 0
KVP1 080809Z 02007KT M02/M02 A3028 RMK A01 T10151017  RH  098%=      5-min Rain = 0
KVP1 080810Z 03007KT M02/M02 A3028 RMK A01 T10151017  RH  098%=      5-min Rain = 0
KVP1 080811Z 03007KT M02/M02 A3028 RMK A01 T10151017  RH  098%=      5-min Rain = 0
KVP1 080812Z 03006KT M02/M02 A3028 RMK A01 T10151017  RH  098%=      5-min Rain = 0
KVP1 080813Z 02005KT M02/M02 A3028 RMK A01 T10151017  RH  098%=      5-min Rain = 0
KVP1 080814Z 02006KT M01/M02 A3028 RMK A01 T10141017  RH  098%=      5-min Rain = 0
KVP1 080815Z 02007KT M01/M02 A3028 RMK A01 T10141017  RH  098%=      5-min Rain = 0
KVP1 080816Z 02007KT M01/M02 A3028 RMK A01 T10141017  RH  098%=      5-min Rain = 0
KVP1 080817Z 02006KT M01/M02 A3028 RMK A01 T10141017  RH  098%=      5-min Rain = 0
KVP1 080818Z 03007KT M01/M02 A3028 RMK A01 T10141017  RH  098%=      5-min Rain = 0
KVP1 080819Z 02005KT M01/M02 A3028 RMK A01 T10141017  RH  098%=      5-min Rain = 0
KVP1 080820Z 02005KT M01/M02 A3028 RMK A01 T10141017  RH  098%=      5-min Rain = 0
KVP1 080821Z 02006KT M01/M02 A3028 RMK A01 T10141016  RH  098%=      5-min Rain = 0
KVP1 080822Z 02006KT M01/M02 A3028 RMK A01 T10141017  RH  098%=      5-min Rain = 0
KVP1 080823Z 02006KT M01/M02 A3028 RMK A01 T10141017  RH  098%=      5-min Rain = 0
KVP1 080824Z 02007KT M01/M02 A3027 RMK A01 T10141017  RH  098%=      5-min Rain = 0
KVP1 080825Z 03008KT M01/M02 A3027 RMK A01 T10141017  RH  098%=      5-min Rain = 0
KVP1 080826Z 02008KT M01/M02 A3027 RMK A01 T10141016  RH  098%=      5-min Rain = 0
KVP1 080827Z 02008KT M01/M02 A3027 RMK A01 T10141017  RH  098%=      5-min Rain = 0
KVP1 080828Z 02007KT M01/M02 A3027 RMK A01 T10141017  RH  098%=      5-min Rain = 0
KVP1 080829Z 02008KT M02/M02 A3027 RMK A01 T10151017  RH  098%=      5-min Rain = 0
KVP1 080830Z 02007KT M01/M02 A3027 RMK A01 T10141017  RH  098%=      5-min Rain = 0
KVP1 080831Z 02006KT M01/M02 A3027 RMK A01 T10141017  RH  098%=      5-min Rain = 0
KVP1 080832Z 01005KT M01/M02 A3027 RMK A01 T10141017  RH  098%=      5-min Rain = 0
KVP1 080833Z 02005KT M01/M02 A3027 RMK A01 T10141017  RH  098%=      5-min Rain = 0
KVP1 080834Z 01005KT M01/M02 A3028 RMK A01 T10141017  RH  098%=      5-min Rain = 0
KVP1 080835Z 03005KT M01/M02 A3028 RMK A01 T10141017  RH  098%=      5-min Rain = 0
KVP1 080836Z 02006KT M01/M02 A3028 RMK A01 T10141017  RH  098%=      5-min Rain = 0
KVP1 080837Z 02006KT M02/M02 A3028 RMK A01 T10151018  RH  098%=      5-min Rain = 0
KVP1 080838Z 02005KT M02/M02 A3028 RMK A01 T10151017  RH  098%=      5-min Rain = 0
KVP1 080839Z 02007KT M02/M02 A3028 RMK A01 T10151017  RH  098%=      5-min Rain = 0
KVP1 080840Z 02006KT M02/M02 A3028 RMK A01 T10151018  RH  098%=      5-min Rain = 0
KVP1 080841Z 01006KT M02/M02 A3028 RMK A01 T10151018  RH  098%=      5-min Rain = 0
KVP1 080842Z 02007KT M02/M02 A3028 RMK A01 T10151018  RH  098%=      5-min Rain = 0
KVP1 080843Z 01005KT M02/M02 A3028 RMK A01 T10151018  RH  098%=      5-min Rain = 0
KVP1 080844Z 02006KT M02/M02 A3028 RMK A01 T10151018  RH  098%=      5-min Rain = 0
KVP1 080845Z 01006KT M02/M02 A3028 RMK A01 T10151018  RH  098%=      5-min Rain = 0
KVP1 080846Z 01005KT M02/M02 A3028 RMK A01 T10151018  RH  098%=      5-min Rain = 0
KVP1 080847Z 01004KT M02/M02 A3028 RMK A01 T10151018  RH  098%=      5-min Rain = 0
KVP1 080848Z 01006KT M02/M02 A3028 RMK A01 T10151018  RH  098%=      5-min Rain = 0
KVP1 080849Z 01007KT M02/M02 A3028 RMK A01 T10151018  RH  098%=      5-min Rain = 0
KVP1 080850Z 01006KT M02/M02 A3028 RMK A01 T10151018  RH  098%=      5-min Rain = 0
KVP1 080851Z 01005KT M02/M02 A3028 RMK A01 T10151018  RH  098%=      5-min Rain = 0
KVP1 080852Z 01005KT M02/M02 A3028 RMK A01 T10151018  RH  098%=      5-min Rain = 0
KVP1 080853Z 00007KT M02/M02 A3028 RMK A01 T10151018  RH  098%=      5-min Rain = 0
KVP1 080854Z 00006KT M02/M02 A3028 RMK A01 T10151018  RH  098%=      5-min Rain = 0
KVP1 080855Z 01007KT M02/M02 A3028 RMK A01 T10151018  RH  098%=      5-min Rain = 0
KVP1 080856Z 00007KT M02/M02 A3028 RMK A01 T10151018  RH  098%=      5-min Rain = 0
KVP1 080857Z 36006KT M02/M02 A3028 RMK A01 T10151018  RH  098%=      5-min Rain = 0
KVP1 080858Z 00007KT M02/M02 A3028 RMK A01 T10151018  RH  098%=      5-min Rain = 0
KVP1 080859Z 01006KT M02/M02 A3028 RMK A01 T10161019  RH  098%=      5-min Rain = 0
KVP1 080900Z 01006KT M02/M02 A3028 RMK A01 T10161019  RH  098%=      5-min Rain = 0
KVP1 080901Z 01008KT M02/M02 A3027 RMK A01 T10151019  RH  098%=      5-min Rain = 0
KVP1 080902Z 01007KT M02/M02 A3028 RMK A01 T10161019  RH  098%=      5-min Rain = 0
KVP1 080903Z 01006KT M02/M02 A3028 RMK A01 T10161019  RH  098%=      5-min Rain = 0
KVP1 080904Z 01006KT M02/M02 A3028 RMK A01 T10161019  RH  098%=      5-min Rain = 0
KVP1 080905Z 00007KT M02/M02 A3028 RMK A01 T10161020  RH  098%=      5-min Rain = 0
KVP1 080906Z 01007KT M02/M02 A3028 RMK A01 T10161020  RH  098%=      5-min Rain = 0
KVP1 080907Z 01007KT M02/M02 A3028 RMK A01 T10171020  RH  097%=      5-min Rain = 0
KVP1 080908Z 01007KT M02/M02 A3028 RMK A01 T10161020  RH  097%=      5-min Rain = 0
KVP1 080909Z 01006KT M02/M02 A3028 RMK A01 T10171020  RH  097%=      5-min Rain = 0
KVP1 080910Z 36005KT M02/M02 A3028 RMK A01 T10171020  RH  097%=      5-min Rain = 0
KVP1 080911Z 00004KT M02/M02 A3028 RMK A01 T10171020  RH  097%=      5-min Rain = 0
KVP1 080912Z 00007KT M02/M02 A3028 RMK A01 T10171020  RH  097%=      5-min Rain = 0
KVP1 080913Z 00005KT M02/M02 A3028 RMK A01 T10171020  RH  097%=      5-min Rain = 0
KVP1 080914Z 36006KT M02/M02 A3028 RMK A01 T10161020  RH  097%=      5-min Rain = 0
KVP1 080915Z 36005KT M02/M02 A3028 RMK A01 T10171021  RH  097%=      5-min Rain = 0
KVP1 080916Z 36006KT M02/M02 A3028 RMK A01 T10161021  RH  097%=      5-min Rain = 0
KVP1 080917Z 00007KT M02/M02 A3028 RMK A01 T10171021  RH  097%=      5-min Rain = 0
KVP1 080918Z 36006KT M02/M02 A3028 RMK A01 T10171021  RH  097%=      5-min Rain = 0
KVP1 080919Z 36006KT M02/M02 A3028 RMK A01 T10171022  RH  097%=      5-min Rain = 0
KVP1 080920Z 36006KT M02/M02 A3028 RMK A01 T10171022  RH  097%=      5-min Rain = 0
KVP1 080921Z 36006KT M02/M02 A3028 RMK A01 T10171022  RH  096%=      5-min Rain = 0
KVP1 080922Z 00007KT M02/M02 A3028 RMK A01 T10171022  RH  096%=      5-min Rain = 0
KVP1 080923Z 00006KT M02/M02 A3028 RMK A01 T10171022  RH  096%=      5-min Rain = 0
KVP1 080924Z 36006KT M02/M02 A3028 RMK A01 T10171022  RH  096%=      5-min Rain = 0
KVP1 080925Z 36007KT M02/M02 A3028 RMK A01 T10171022  RH  096%=      5-min Rain = 0
KVP1 080926Z 36006KT M02/M02 A3028 RMK A01 T10171022  RH  096%=      5-min Rain = 0
KVP1 080927Z 00006KT M02/M02 A3028 RMK A01 T10171022  RH  096%=      5-min Rain = 0
KVP1 080928Z 00007KT M02/M02 A3028 RMK A01 T10171022  RH  096%=      5-min Rain = 0
KVP1 080929Z 00006KT M02/M02 A3028 RMK A01 T10171022  RH  096%=      5-min Rain = 0
KVP1 080930Z 00004KT M02/M02 A3028 RMK A01 T10171022  RH  096%=      5-min Rain = 0
KVP1 080931Z 36007KT M02/M02 A3028 RMK A01 T10171022  RH  096%=      5-min Rain = 0
KVP1 080932Z 36007KT M02/M02 A3028 RMK A01 T10161022  RH  096%=      5-min Rain = 0
KVP1 080933Z 00006KT M02/M02 A3028 RMK A01 T10171022  RH  096%=      5-min Rain = 0
KVP1 080934Z 35007KT M02/M02 A3028 RMK A01 T10161022  RH  096%=      5-min Rain = 0
KVP1 080935Z 36008KT M02/M02 A3028 RMK A01 T10171022  RH  096%=      5-min Rain = 0
KVP1 080936Z 35008KT M02/M02 A3028 RMK A01 T10161022  RH  096%=      5-min Rain = 0
KVP1 080937Z 35007KT M02/M02 A3028 RMK A01 T10171023  RH  096%=      5-min Rain = 0
KVP1 080938Z 35007KT M02/M02 A3028 RMK A01 T10171022  RH  096%=      5-min Rain = 0
KVP1 080939Z 35007KT M02/M02 A3027 RMK A01 T10171022  RH  096%=      5-min Rain = 0
KVP1 080940Z 35006KT M02/M02 A3027 RMK A01 T10171023  RH  096%=      5-min Rain = 0
KVP1 080941Z 00007KT M02/M02 A3027 RMK A01 T10171023  RH  096%=      5-min Rain = 0
KVP1 080942Z 00005KT M02/M02 A3027 RMK A01 T10171023  RH  096%=      5-min Rain = 0
KVP1 080943Z 36007KT M02/M02 A3027 RMK A01 T10171022  RH  096%=      5-min Rain = 0
KVP1 080944Z 00006KT M02/M02 A3027 RMK A01 T10161022  RH  096%=      5-min Rain = 0
KVP1 080945Z 00005KT M02/M02 A3027 RMK A01 T10161022  RH  096%=      5-min Rain = 0
KVP1 080946Z 01004KT M02/M02 A3027 RMK A01 T10161022  RH  096%=      5-min Rain = 0
KVP1 080947Z 36005KT M02/M02 A3027 RMK A01 T10161022  RH  096%=      5-min Rain = 0
KVP1 080948Z 35008KT M02/M02 A3027 RMK A01 T10161022  RH  096%=      5-min Rain = 0
KVP1 080949Z 00007KT M02/M02 A3027 RMK A01 T10171022  RH  096%=      5-min Rain = 0
KVP1 080950Z 00005KT M02/M02 A3027 RMK A01 T10171022  RH  096%=      5-min Rain = 0
KVP1 080951Z 00007KT M02/M02 A3027 RMK A01 T10171023  RH  096%=      5-min Rain = 0
KVP1 080952Z 00008KT M02/M02 A3027 RMK A01 T10171023  RH  096%=      5-min Rain = 0
KVP1 080953Z 01006KT M02/M02 A3027 RMK A01 T10171024  RH  096%=      5-min Rain = 0
KVP1 080954Z 01007KT M02/M02 A3027 RMK A01 T10171023  RH  096%=      5-min Rain = 0
KVP1 080955Z 00006KT M02/M02 A3027 RMK A01 T10171024  RH  096%=      5-min Rain = 0
KVP1 080956Z 01006KT M02/M02 A3026 RMK A01 T10181024  RH  095%=      5-min Rain = 0
KVP1 080957Z 01006KT M02/M02 A3026 RMK A01 T10181024  RH  095%=      5-min Rain = 0
KVP1 080958Z 01007KT M02/M02 A3026 RMK A01 T10181024  RH  095%=      5-min Rain = 0
KVP1 080959Z 01007KT M02/M02 A3026 RMK A01 T10181024  RH  095%=      5-min Rain = 0
KVP1 081000Z 00007KT M02/M02 A3026 RMK A01 T10181024  RH  095%=      5-min Rain = 0
KVP1 081001Z 00007KT M02/M02 A3026 RMK A01 T10181024  RH  095%=      5-min Rain = 0
KVP1 081002Z 36006KT M02/M02 A3026 RMK A01 T10181024  RH  095%=      5-min Rain = 0
KVP1 081003Z 01006KT M02/M02 A3026 RMK A01 T10181024  RH  095%=      5-min Rain = 0
KVP1 081004Z 01005KT M02/M02 A3026 RMK A01 T10181024  RH  095%=      5-min Rain = 0
KVP1 081005Z 00008KT M02/M02 A3026 RMK A01 T10181024  RH  095%=      5-min Rain = 0
KVP1 081006Z 01006KT M02/M03 A3026 RMK A01 T10181025  RH  095%=      5-min Rain = 0
KVP1 081007Z 01007KT M02/M02 A3026 RMK A01 T10181024  RH  095%=      5-min Rain = 0
KVP1 081008Z 00007KT M02/M02 A3026 RMK A01 T10181024  RH  095%=      5-min Rain = 0
KVP1 081009Z 36005KT M02/M02 A3026 RMK A01 T10181024  RH  096%=      5-min Rain = 0
KVP1 081010Z 36005KT M02/M02 A3026 RMK A01 T10181024  RH  096%=      5-min Rain = 0
KVP1 081011Z 36007KT M02/M02 A3026 RMK A01 T10181024  RH  096%=      5-min Rain = 0
KVP1 081012Z 00008KT M02/M02 A3026 RMK A01 T10171024  RH  096%=      5-min Rain = 0
KVP1 081013Z 36008KT M02/M02 A3026 RMK A01 T10171023  RH  096%=      5-min Rain = 0
KVP1 081014Z 36006KT M02/M02 A3026 RMK A01 T10171024  RH  095%=      5-min Rain = 0
KVP1 081015Z 36006KT M02/M02 A3026 RMK A01 T10171024  RH  095%=      5-min Rain = 0
KVP1 081016Z 36007KT M02/M02 A3026 RMK A01 T10171024  RH  096%=      5-min Rain = 0
KVP1 081017Z 36007KT M02/M02 A3026 RMK A01 T10171024  RH  096%=      5-min Rain = 0
KVP1 081018Z 36008KT M02/M02 A3026 RMK A01 T10171024  RH  095%=      5-min Rain = 0
KVP1 081019Z 36006KT M02/M02 A3026 RMK A01 T10171024  RH  095%=      5-min Rain = 0
KVP1 081020Z 36008KT M02/M02 A3026 RMK A01 T10171024  RH  095%=      5-min Rain = 0
KVP1 081021Z 35007KT M02/M02 A3026 RMK A01 T10171023  RH  095%=      5-min Rain = 0
KVP1 081022Z 36007KT M02/M02 A3026 RMK A01 T10171023  RH  096%=      5-min Rain = 0
KVP1 081023Z 35006KT M02/M02 A3026 RMK A01 T10171023  RH  096%=      5-min Rain = 0
KVP1 081024Z 35008KT M02/M02 A3026 RMK A01 T10171023  RH  096%=      5-min Rain = 0
KVP1 081025Z 36007KT M02/M02 A3026 RMK A01 T10171023  RH  096%=      5-min Rain = 0
KVP1 081026Z 36008KT M02/M02 A3026 RMK A01 T10171023  RH  096%=      5-min Rain = 0
KVP1 081027Z 35007KT M02/M02 A3026 RMK A01 T10171023  RH  095%=      5-min Rain = 0
KVP1 081028Z 36007KT M02/M02 A3026 RMK A01 T10171023  RH  095%=      5-min Rain = 0
KVP1 081029Z 00007KT M02/M02 A3026 RMK A01 T10171023  RH  095%=      5-min Rain = 0
KVP1 081030Z 36008KT M02/M02 A3026 RMK A01 T10161023  RH  095%=      5-min Rain = 0
KVP1 081031Z 36007KT M02/M02 A3026 RMK A01 T10161023  RH  095%=      5-min Rain = 0
KVP1 081032Z 36007KT M02/M02 A3026 RMK A01 T10161023  RH  095%=      5-min Rain = 0
KVP1 081033Z 36006KT M02/M02 A3025 RMK A01 T10171023  RH  095%=      5-min Rain = 0
KVP1 081034Z 35006KT M02/M02 A3025 RMK A01 T10161023  RH  095%=      5-min Rain = 0
KVP1 081035Z 00008KT M02/M02 A3025 RMK A01 T10161023  RH  095%=      5-min Rain = 0
KVP1 081036Z 36009KT M02/M02 A3025 RMK A01 T10171023  RH  095%=      5-min Rain = 0
KVP1 081037Z 36006KT M02/M02 A3025 RMK A01 T10161023  RH  095%=      5-min Rain = 0
KVP1 081038Z 36007KT M02/M02 A3025 RMK A01 T10161023  RH  095%=      5-min Rain = 0
KVP1 081039Z 36007KT M02/M02 A3025 RMK A01 T10171023  RH  095%=      5-min Rain = 0
KVP1 081040Z 36006KT M02/M02 A3025 RMK A01 T10171023  RH  095%=      5-min Rain = 0
KVP1 081041Z 36009KT M02/M02 A3026 RMK A01 T10161023  RH  095%=      5-min Rain = 0
KVP1 081042Z 36009KT M02/M02 A3025 RMK A01 T10171023  RH  095%=      5-min Rain = 0
KVP1 081043Z 36008KT M02/M02 A3025 RMK A01 T10161024  RH  095%=      5-min Rain = 0
KVP1 081044Z 00008KT M02/M02 A3025 RMK A01 T10161024  RH  095%=      5-min Rain = 0
KVP1 081045Z 36009KT M02/M02 A3025 RMK A01 T10161024  RH  095%=      5-min Rain = 0
KVP1 081046Z 00008KT M02/M02 A3025 RMK A01 T10161024  RH  094%=      5-min Rain = 0
KVP1 081047Z 00007KT M02/M02 A3025 RMK A01 T10161024  RH  094%=      5-min Rain = 0
KVP1 081048Z 36008KT M02/M02 A3025 RMK A01 T10161024  RH  094%=      5-min Rain = 0
KVP1 081049Z 00007KT M02/M03 A3025 RMK A01 T10171025  RH  094%=      5-min Rain = 0
KVP1 081050Z 00009KT M02/M03 A3025 RMK A01 T10161025  RH  094%=      5-min Rain = 0
KVP1 081051Z 36006KT M02/M03 A3025 RMK A01 T10161025  RH  094%=      5-min Rain = 0
KVP1 081052Z 00008KT M02/M03 A3025 RMK A01 T10161025  RH  094%=      5-min Rain = 0
KVP1 081053Z 36005KT M02/M02 A3025 RMK A01 T10161024  RH  094%=      5-min Rain = 0
KVP1 081054Z 00006KT M02/M02 A3025 RMK A01 T10171024  RH  094%=      5-min Rain = 0
KVP1 081055Z 00008KT M02/M02 A3025 RMK A01 T10161024  RH  094%=      5-min Rain = 0
KVP1 081056Z 36008KT M02/M02 A3025 RMK A01 T10161024  RH  095%=      5-min Rain = 0
KVP1 081057Z 00008KT M02/M02 A3025 RMK A01 T10161024  RH  094%=      5-min Rain = 0
KVP1 081058Z 36006KT M02/M03 A3025 RMK A01 T10171025  RH  094%=      5-min Rain = 0
KVP1 081059Z 00008KT M02/M03 A3025 RMK A01 T10171025  RH  094%=      5-min Rain = 0
KVP1 081100Z 36008KT M02/M03 A3025 RMK A01 T10161025  RH  094%=      5-min Rain = 0
KVP1 081101Z 36008KT M02/M03 A3025 RMK A01 T10161025  RH  094%=      5-min Rain = 0
KVP1 081102Z 36008KT M02/M03 A3025 RMK A01 T10171025  RH  094%=      5-min Rain = 0
KVP1 081103Z 00007KT M02/M03 A3025 RMK A01 T10171025  RH  094%=      5-min Rain = 0
KVP1 081104Z 00008KT M02/M03 A3025 RMK A01 T10171025  RH  094%=      5-min Rain = 0
KVP1 081105Z 00006KT M02/M02 A3025 RMK A01 T10161024  RH  094%=      5-min Rain = 0
KVP1 081106Z 36006KT M02/M02 A3025 RMK A01 T10161024  RH  094%=      5-min Rain = 0
KVP1 081107Z 36007KT M02/M02 A3025 RMK A01 T10171024  RH  095%=      5-min Rain = 0
KVP1 081108Z 36008KT M02/M02 A3025 RMK A01 T10171024  RH  095%=      5-min Rain = 0
KVP1 081109Z 35008KT M02/M02 A3025 RMK A01 T10171024  RH  095%=      5-min Rain = 0
KVP1 081110Z 00007KT M02/M02 A3025 RMK A01 T10171024  RH  095%=      5-min Rain = 0
KVP1 081111Z 35006KT M02/M02 A3025 RMK A01 T10171024  RH  095%=      5-min Rain = 0
KVP1 081112Z 36008KT M02/M02 A3025 RMK A01 T10171024  RH  095%=      5-min Rain = 0
KVP1 081113Z 36007KT M02/M02 A3025 RMK A01 T10171024  RH  095%=      5-min Rain = 0
KVP1 081114Z 36008KT M02/M02 A3025 RMK A01 T10171024  RH  095%=      5-min Rain = 0
KVP1 081115Z 36008KT M02/M02 A3025 RMK A01 T10171024  RH  095%=      5-min Rain = 0
KVP1 081116Z 36008KT M02/M02 A3025 RMK A01 T10171024  RH  095%=      5-min Rain = 0
KVP1 081117Z 00008KT M02/M02 A3025 RMK A01 T10171024  RH  095%=      5-min Rain = 0
KVP1 081118Z 00008KT M02/M02 A3025 RMK A01 T10171024  RH  095%=      5-min Rain = 0
KVP1 081119Z 36007KT M02/M02 A3025 RMK A01 T10171023  RH  095%=      5-min Rain = 0
KVP1 081120Z 00007KT M02/M02 A3025 RMK A01 T10171024  RH  095%=      5-min Rain = 0
KVP1 081121Z 00007KT M02/M02 A3025 RMK A01 T10171023  RH  095%=      5-min Rain = 0
KVP1 081122Z 00006KT M02/M02 A3025 RMK A01 T10171024  RH  095%=      5-min Rain = 0
KVP1 081123Z 36007KT M02/M02 A3025 RMK A01 T10171024  RH  095%=      5-min Rain = 0
KVP1 081124Z 35007KT M02/M02 A3025 RMK A01 T10171024  RH  095%=      5-min Rain = 0
KVP1 081125Z 36008KT M02/M02 A3025 RMK A01 T10171024  RH  095%=      5-min Rain = 0
KVP1 081126Z 36006KT M02/M02 A3025 RMK A01 T10181024  RH  095%=      5-min Rain = 0
KVP1 081127Z 36005KT M02/M02 A3025 RMK A01 T10171024  RH  096%=      5-min Rain = 0
KVP1 081128Z 36005KT M02/M02 A3025 RMK A01 T10171024  RH  096%=      5-min Rain = 0
KVP1 081129Z 00007KT M02/M02 A3025 RMK A01 T10171024  RH  096%=      5-min Rain = 0
KVP1 081130Z 00007KT M02/M02 A3025 RMK A01 T10171023  RH  096%=      5-min Rain = 0
KVP1 081131Z 36005KT M02/M02 A3025 RMK A01 T10171024  RH  096%=      5-min Rain = 0
KVP1 081132Z 36007KT M02/M02 A3025 RMK A01 T10171024  RH  096%=      5-min Rain = 0
KVP1 081133Z 36006KT M02/M02 A3025 RMK A01 T10171024  RH  096%=      5-min Rain = 0
KVP1 081134Z 36006KT M02/M02 A3025 RMK A01 T10181024  RH  095%=      5-min Rain = 0
KVP1 081135Z 00007KT M02/M02 A3026 RMK A01 T10181024  RH  095%=      5-min Rain = 0
KVP1 081136Z 36006KT M02/M02 A3026 RMK A01 T10181024  RH  095%=      5-min Rain = 0
KVP1 081137Z 00005KT M02/M02 A3026 RMK A01 T10181024  RH  095%=      5-min Rain = 0
KVP1 081138Z 00004KT M02/M02 A3026 RMK A01 T10181024  RH  096%=      5-min Rain = 0
KVP1 081139Z 00004KT M02/M02 A3026 RMK A01 T10181024  RH  096%=      5-min Rain = 0
KVP1 081140Z 00005KT M02/M02 A3026 RMK A01 T10181024  RH  096%=      5-min Rain = 0
KVP1 081141Z 00005KT M02/M02 A3026 RMK A01 T10181024  RH  096%=      5-min Rain = 0
KVP1 081142Z 01005KT M02/M02 A3026 RMK A01 T10181024  RH  096%=      5-min Rain = 0
KVP1 081143Z 00005KT M02/M02 A3026 RMK A01 T10181024  RH  096%=      5-min Rain = 0
KVP1 081144Z 00005KT M02/M02 A3026 RMK A01 T10181024  RH  096%=      5-min Rain = 0
KVP1 081145Z 01006KT M02/M02 A3026 RMK A01 T10181024  RH  096%=      5-min Rain = 0
KVP1 081146Z 01006KT M02/M02 A3026 RMK A01 T10181024  RH  096%=      5-min Rain = 0
KVP1 081147Z 01006KT M02/M02 A3026 RMK A01 T10181024  RH  096%=      5-min Rain = 0
KVP1 081148Z 01006KT M02/M02 A3026 RMK A01 T10181024  RH  096%=      5-min Rain = 0
KVP1 081149Z 01004KT M02/M02 A3026 RMK A01 T10181024  RH  096%=      5-min Rain = 0
KVP1 081150Z 01006KT M02/M02 A3026 RMK A01 T10181023  RH  096%=      5-min Rain = 0
KVP1 081151Z 00005KT M02/M02 A3026 RMK A01 T10181024  RH  096%=      5-min Rain = 0
KVP1 081152Z 00006KT M02/M02 A3026 RMK A01 T10181024  RH  096%=      5-min Rain = 0
KVP1 081153Z 00006KT M02/M02 A3026 RMK A01 T10181024  RH  096%=      5-min Rain = 0
KVP1 081154Z 00005KT M02/M02 A3026 RMK A01 T10181024  RH  096%=      5-min Rain = 0
KVP1 081155Z 00005KT M02/M02 A3026 RMK A01 T10181023  RH  096%=      5-min Rain = 0
KVP1 081156Z 00006KT M02/M02 A3026 RMK A01 T10181023  RH  096%=      5-min Rain = 0
KVP1 081157Z 01005KT M02/M02 A3026 RMK A01 T10181023  RH  096%=      5-min Rain = 0
KVP1 081158Z 00006KT M02/M02 A3026 RMK A01 T10181023  RH  096%=      5-min Rain = 0
KVP1 081159Z 00005KT M02/M02 A3026 RMK A01 T10181023  RH  096%=      5-min Rain = 0
KVP1 081200Z 00005KT M02/M02 A3026 RMK A01 T10181023  RH  096%=      5-min Rain = 0
KVP1 081201Z 00006KT M02/M02 A3026 RMK A01 T10181023  RH  096%=      5-min Rain = 0
KVP1 081202Z 00005KT M02/M02 A3026 RMK A01 T10181024  RH  096%=      5-min Rain = 0
KVP1 081203Z 00004KT M02/M02 A3027 RMK A01 T10181024  RH  096%=      5-min Rain = 0
KVP1 081204Z 00004KT M02/M02 A3027 RMK A01 T10181024  RH  096%=      5-min Rain = 0
KVP1 081205Z 00005KT M02/M02 A3027 RMK A01 T10181024  RH  096%=      5-min Rain = 0
KVP1 081206Z 36005KT M02/M02 A3027 RMK A01 T10181024  RH  096%=      5-min Rain = 0
KVP1 081207Z 36005KT M02/M02 A3027 RMK A01 T10181023  RH  096%=      5-min Rain = 0
KVP1 081208Z 36005KT M02/M02 A3027 RMK A01 T10181024  RH  096%=      5-min Rain = 0
KVP1 081209Z 00006KT M02/M02 A3027 RMK A01 T10181023  RH  096%=      5-min Rain = 0
KVP1 081210Z 00005KT M02/M02 A3027 RMK A01 T10181023  RH  096%=      5-min Rain = 0
KVP1 081211Z 00007KT M02/M02 A3027 RMK A01 T10181023  RH  096%=      5-min Rain = 0
KVP1 081212Z 36006KT M02/M02 A3027 RMK A01 T10181023  RH  096%=      5-min Rain = 0
KVP1 081213Z 36004KT M02/M02 A3027 RMK A01 T10181023  RH  096%=      5-min Rain = 0
KVP1 081214Z 36005KT M02/M02 A3027 RMK A01 T10181023  RH  097%=      5-min Rain = 0
KVP1 081215Z 36005KT M02/M02 A3027 RMK A01 T10181023  RH  097%=      5-min Rain = 0
KVP1 081216Z 36006KT M02/M02 A3027 RMK A01 T10181023  RH  097%=      5-min Rain = 0
KVP1 081217Z 35006KT M02/M02 A3027 RMK A01 T10181023  RH  097%=      5-min Rain = 0
KVP1 081218Z 36005KT M02/M02 A3027 RMK A01 T10181023  RH  097%=      5-min Rain = 0
KVP1 081219Z 01005KT M02/M02 A3027 RMK A01 T10181023  RH  097%=      5-min Rain = 0
KVP1 081220Z 01005KT M02/M02 A3027 RMK A01 T10181023  RH  097%=      5-min Rain = 0
KVP1 081221Z 36005KT M02/M02 A3027 RMK A01 T10181023  RH  097%=      5-min Rain = 0
KVP1 081222Z 00006KT M02/M02 A3027 RMK A01 T10181023  RH  097%=      5-min Rain = 0
KVP1 081223Z 00006KT M02/M02 A3027 RMK A01 T10181023  RH  097%=      5-min Rain = 0
KVP1 081224Z 01005KT M02/M02 A3027 RMK A01 T10181023  RH  097%=      5-min Rain = 0
KVP1 081225Z 36007KT M02/M02 A3026 RMK A01 T10181023  RH  097%=      5-min Rain = 0
KVP1 081226Z 00007KT M02/M02 A3026 RMK A01 T10181023  RH  097%=      5-min Rain = 0
KVP1 081227Z 36007KT M02/M02 A3026 RMK A01 T10181023  RH  097%=      5-min Rain = 0
KVP1 081228Z 36007KT M02/M02 A3027 RMK A01 T10181023  RH  097%=      5-min Rain = 0
KVP1 081229Z 36005KT M02/M02 A3027 RMK A01 T10181023  RH  097%=      5-min Rain = 0
KVP1 081230Z 35005KT M02/M02 A3027 RMK A01 T10181023  RH  097%=      5-min Rain = 0
KVP1 081231Z 00005KT M02/M02 A3027 RMK A01 T10181023  RH  097%=      5-min Rain = 0
KVP1 081232Z 36005KT M02/M02 A3027 RMK A01 T10181023  RH  097%=      5-min Rain = 0
KVP1 081233Z 00006KT M02/M02 A3027 RMK A01 T10181023  RH  097%=      5-min Rain = 0
KVP1 081234Z 00006KT M02/M02 A3027 RMK A01 T10181022  RH  097%=      5-min Rain = 0
KVP1 081235Z 01005KT M02/M02 A3027 RMK A01 T10181022  RH  097%=      5-min Rain = 0
KVP1 081236Z 01005KT M02/M02 A3027 RMK A01 T10181023  RH  097%=      5-min Rain = 0
KVP1 081237Z 01005KT M02/M02 A3026 RMK A01 T10181023  RH  097%=      5-min Rain = 0
KVP1 081238Z 01004KT M02/M02 A3026 RMK A01 T10181023  RH  097%=      5-min Rain = 0
KVP1 081239Z 01004KT M02/M02 A3026 RMK A01 T10181023  RH  097%=      5-min Rain = 0
KVP1 081240Z 01006KT M02/M02 A3026 RMK A01 T10181022  RH  097%=      5-min Rain = 0
KVP1 081241Z 01005KT M02/M02 A3026 RMK A01 T10181023  RH  097%=      5-min Rain = 0
KVP1 081242Z 01005KT M02/M02 A3026 RMK A01 T10181023  RH  097%=      5-min Rain = 0
KVP1 081243Z 01005KT M02/M02 A3026 RMK A01 T10181023  RH  097%=      5-min Rain = 0
KVP1 081244Z 01005KT M02/M02 A3027 RMK A01 T10181023  RH  097%=      5-min Rain = 0
KVP1 081245Z 01004KT M02/M02 A3027 RMK A01 T10181023  RH  097%=      5-min Rain = 0
KVP1 081246Z 00005KT M02/M02 A3027 RMK A01 T10181023  RH  096%=      5-min Rain = 0
KVP1 081247Z 00004KT M02/M02 A3027 RMK A01 T10181023  RH  096%=      5-min Rain = 0
KVP1 081248Z 01005KT M02/M02 A3027 RMK A01 T10181023  RH  096%=      5-min Rain = 0
KVP1 081249Z 01007KT M02/M02 A3027 RMK A01 T10181023  RH  096%=      5-min Rain = 0
KVP1 081250Z 01006KT M02/M02 A3026 RMK A01 T10181023  RH  096%=      5-min Rain = 0
KVP1 081251Z 01007KT M02/M02 A3026 RMK A01 T10181023  RH  096%=      5-min Rain = 0
KVP1 081252Z 01006KT M02/M02 A3026 RMK A01 T10181023  RH  096%=      5-min Rain = 0
KVP1 081253Z 01006KT M02/M02 A3026 RMK A01 T10171023  RH  096%=      5-min Rain = 0
KVP1 081254Z 01005KT M02/M02 A3026 RMK A01 T10171023  RH  096%=      5-min Rain = 0
KVP1 081255Z 01004KT M02/M02 A3026 RMK A01 T10181023  RH  096%=      5-min Rain = 0
KVP1 081256Z 00004KT M02/M02 A3027 RMK A01 T10171023  RH  096%=      5-min Rain = 0
KVP1 081257Z 01004KT M02/M02 A3027 RMK A01 T10171023  RH  096%=      5-min Rain = 0
KVP1 081258Z 00004KT M02/M02 A3027 RMK A01 T10171023  RH  096%=      5-min Rain = 0
KVP1 081259Z 01004KT M02/M02 A3027 RMK A01 T10171023  RH  096%=      5-min Rain = 0
KVP1 081300Z 01004KT M02/M02 A3027 RMK A01 T10171023  RH  096%=      5-min Rain = 0
KVP1 081301Z 01005KT M02/M02 A3027 RMK A01 T10171023  RH  096%=      5-min Rain = 0
KVP1 081302Z 02004KT M02/M02 A3027 RMK A01 T10171023  RH  096%=      5-min Rain = 0
KVP1 081303Z 01005KT M02/M02 A3027 RMK A01 T10171023  RH  096%=      5-min Rain = 0
KVP1 081304Z 00004KT M02/M02 A3027 RMK A01 T10181023  RH  096%=      5-min Rain = 0
KVP1 081305Z 01005KT M02/M02 A3027 RMK A01 T10171023  RH  096%=      5-min Rain = 0
KVP1 081306Z 01005KT M02/M02 A3027 RMK A01 T10171023  RH  096%=      5-min Rain = 0
KVP1 081307Z 01005KT M02/M02 A3027 RMK A01 T10171023  RH  096%=      5-min Rain = 0
KVP1 081308Z 01005KT M02/M02 A3027 RMK A01 T10171023  RH  096%=      5-min Rain = 0
KVP1 081309Z 01005KT M02/M02 A3027 RMK A01 T10171023  RH  096%=      5-min Rain = 0
KVP1 081310Z 01004KT M02/M02 A3027 RMK A01 T10171023  RH  096%=      5-min Rain = 0
KVP1 081311Z 01005KT M02/M02 A3027 RMK A01 T10171023  RH  096%=      5-min Rain = 0
KVP1 081312Z 01005KT M02/M02 A3027 RMK A01 T10171023  RH  096%=      5-min Rain = 0
KVP1 081313Z 01004KT M02/M02 A3027 RMK A01 T10171023  RH  096%=      5-min Rain = 0
KVP1 081314Z 01004KT M02/M02 A3027 RMK A01 T10171023  RH  096%=      5-min Rain = 0
KVP1 081315Z 01005KT M02/M02 A3027 RMK A01 T10171023  RH  096%=      5-min Rain = 0
KVP1 081316Z 00004KT M02/M02 A3027 RMK A01 T10171023  RH  096%=      5-min Rain = 0
KVP1 081317Z 01004KT M02/M02 A3027 RMK A01 T10171023  RH  096%=      5-min Rain = 0
KVP1 081318Z 01005KT M02/M02 A3027 RMK A01 T10171023  RH  096%=      5-min Rain = 0
KVP1 081319Z 01005KT M02/M02 A3027 RMK A01 T10171023  RH  096%=      5-min Rain = 0
KVP1 081320Z 01004KT M02/M02 A3027 RMK A01 T10171023  RH  096%=      5-min Rain = 0
KVP1 081321Z 02004KT M02/M02 A3027 RMK A01 T10171023  RH  096%=      5-min Rain = 0
KVP1 081322Z 01003KT M02/M02 A3027 RMK A01 T10171023  RH  096%=      5-min Rain = 0
KVP1 081323Z 01005KT M02/M02 A3027 RMK A01 T10171023  RH  096%=      5-min Rain = 0
KVP1 081324Z 01004KT M02/M02 A3027 RMK A01 T10171023  RH  096%=      5-min Rain = 0
KVP1 081325Z 01004KT M02/M02 A3027 RMK A01 T10171023  RH  096%=      5-min Rain = 0
KVP1 081326Z 01004KT M02/M02 A3027 RMK A01 T10171023  RH  096%=      5-min Rain = 0
KVP1 081327Z 01005KT M02/M02 A3027 RMK A01 T10171023  RH  096%=      5-min Rain = 0
KVP1 081328Z 01005KT M02/M02 A3027 RMK A01 T10171023  RH  096%=      5-min Rain = 0
KVP1 081329Z 02003KT M02/M02 A3027 RMK A01 T10171023  RH  096%=      5-min Rain = 0
KVP1 081330Z 01004KT M02/M02 A3027 RMK A01 T10171023  RH  096%=      5-min Rain = 0
KVP1 081331Z 01004KT M02/M02 A3027 RMK A01 T10171023  RH  096%=      5-min Rain = 0
KVP1 081332Z 01004KT M02/M02 A3027 RMK A01 T10171023  RH  096%=      5-min Rain = 0
KVP1 081333Z 01004KT M02/M02 A3027 RMK A01 T10171023  RH  096%=      5-min Rain = 0
KVP1 081334Z 01005KT M02/M02 A3028 RMK A01 T10171023  RH  096%=      5-min Rain = 0
KVP1 081335Z 02005KT M02/M02 A3028 RMK A01 T10171023  RH  096%=      5-min Rain = 0
KVP1 081336Z 02004KT M02/M02 A3028 RMK A01 T10171023  RH  096%=      5-min Rain = 0
KVP1 081337Z 02004KT M02/M02 A3028 RMK A01 T10171023  RH  096%=      5-min Rain = 0
KVP1 081338Z 02005KT M02/M02 A3028 RMK A01 T10171023  RH  096%=      5-min Rain = 0
KVP1 081339Z 02005KT M02/M02 A3028 RMK A01 T10171023  RH  096%=      5-min Rain = 0
KVP1 081340Z 02004KT M02/M02 A3028 RMK A01 T10171023  RH  096%=      5-min Rain = 0
KVP1 081341Z 01004KT M02/M02 A3028 RMK A01 T10171023  RH  096%=      5-min Rain = 0
KVP1 081342Z 02005KT M02/M02 A3028 RMK A01 T10171023  RH  096%=      5-min Rain = 0
KVP1 081343Z 02005KT M02/M02 A3028 RMK A01 T10171023  RH  096%=      5-min Rain = 0
KVP1 081344Z 01006KT M02/M02 A3028 RMK A01 T10171023  RH  096%=      5-min Rain = 0
KVP1 081345Z 01006KT M02/M02 A3028 RMK A01 T10171023  RH  096%=      5-min Rain = 0
KVP1 081346Z 01006KT M02/M02 A3028 RMK A01 T10171024  RH  095%=      5-min Rain = 0
KVP1 081347Z 01005KT M02/M02 A3028 RMK A01 T10171023  RH  095%=      5-min Rain = 0
KVP1 081348Z 01006KT M02/M02 A3028 RMK A01 T10171024  RH  095%=      5-min Rain = 0
KVP1 081349Z 01005KT M02/M02 A3028 RMK A01 T10171024  RH  095%=      5-min Rain = 0
KVP1 081350Z 01007KT M02/M02 A3028 RMK A01 T10161024  RH  095%=      5-min Rain = 0
KVP1 081351Z 01007KT M02/M02 A3028 RMK A01 T10161024  RH  094%=      5-min Rain = 0
KVP1 081352Z 01007KT M02/M03 A3028 RMK A01 T10171025  RH  094%=      5-min Rain = 0
KVP1 081353Z 01007KT M02/M03 A3028 RMK A01 T10161025  RH  094%=      5-min Rain = 0
KVP1 081354Z 01007KT M02/M03 A3028 RMK A01 T10171025  RH  094%=      5-min Rain = 0
KVP1 081355Z 01008KT M02/M03 A3028 RMK A01 T10171025  RH  094%=      5-min Rain = 0
KVP1 081356Z 01007KT M02/M03 A3028 RMK A01 T10171026  RH  093%=      5-min Rain = 0
KVP1 081357Z 01009KT M02/M03 A3028 RMK A01 T10171027  RH  093%=      5-min Rain = 0
KVP1 081358Z 01008KT M02/M03 A3028 RMK A01 T10171028  RH  092%=      5-min Rain = 0
KVP1 081359Z 01006KT M02/M03 A3028 RMK A01 T10181029  RH  092%=      5-min Rain = 0
KVP1 081400Z 02006KT M02/M03 A3028 RMK A01 T10171030  RH  091%=      5-min Rain = 0
KVP1 081401Z 01007KT M02/M03 A3029 RMK A01 T10181030  RH  091%=      5-min Rain = 0
KVP1 081402Z 01008KT M02/M03 A3029 RMK A01 T10181030  RH  091%=      5-min Rain = 0
KVP1 081403Z 01006KT M02/M03 A3029 RMK A01 T10181031  RH  091%=      5-min Rain = 0
KVP1 081404Z 01006KT M02/M03 A3029 RMK A01 T10181031  RH  091%=      5-min Rain = 0
KVP1 081405Z 01007KT M02/M03 A3029 RMK A01 T10191032  RH  091%=      5-min Rain = 0
KVP1 081406Z 01006KT M02/M03 A3029 RMK A01 T10181031  RH  091%=      5-min Rain = 0
KVP1 081407Z 01007KT M02/M03 A3029 RMK A01 T10191032  RH  091%=      5-min Rain = 0
KVP1 081408Z 01007KT M02/M03 A3029 RMK A01 T10191033  RH  090%=      5-min Rain = 0
KVP1 081409Z 01007KT M02/M03 A3029 RMK A01 T10191033  RH  090%=      5-min Rain = 0
KVP1 081410Z 01007KT M02/M03 A3029 RMK A01 T10191033  RH  090%=      5-min Rain = 0
KVP1 081411Z 01008KT M02/M03 A3029 RMK A01 T10191033  RH  090%=      5-min Rain = 0
KVP1 081412Z 01007KT M02/M03 A3029 RMK A01 T10191034  RH  090%=      5-min Rain = 0
KVP1 081413Z 01008KT M02/M03 A3029 RMK A01 T10191034  RH  090%=      5-min Rain = 0
KVP1 081414Z 01008KT M02/M03 A3029 RMK A01 T10191034  RH  089%=      5-min Rain = 0
KVP1 081415Z 01007KT M02/M04 A3029 RMK A01 T10191035  RH  089%=      5-min Rain = 0
KVP1 081416Z 01006KT M02/M03 A3029 RMK A01 T10191034  RH  089%=      5-min Rain = 0
KVP1 081417Z 01007KT M02/M03 A3029 RMK A01 T10191034  RH  090%=      5-min Rain = 0
KVP1 081418Z 01005KT M02/M03 A3029 RMK A01 T10191034  RH  090%=      5-min Rain = 0
KVP1 081419Z 01006KT M02/M03 A3029 RMK A01 T10191034  RH  090%=      5-min Rain = 0
KVP1 081420Z 01007KT M02/M03 A3029 RMK A01 T10191033  RH  090%=      5-min Rain = 0
KVP1 081421Z 01007KT M02/M03 A3029 RMK A01 T10191034  RH  090%=      5-min Rain = 0
KVP1 081422Z 01007KT M02/M03 A3029 RMK A01 T10191034  RH  090%=      5-min Rain = 0
KVP1 081423Z 01005KT M02/M03 A3029 RMK A01 T10191034  RH  090%=      5-min Rain = 0
KVP1 081424Z 01006KT M02/M03 A3029 RMK A01 T10191034  RH  090%=      5-min Rain = 0
KVP1 081425Z 01006KT M02/M03 A3029 RMK A01 T10191034  RH  090%=      5-min Rain = 0
KVP1 081426Z 01006KT M02/M03 A3029 RMK A01 T10191033  RH  090%=      5-min Rain = 0
KVP1 081427Z 01006KT M02/M03 A303 RMK A01 T10191034  RH  090%=      5-min Rain = 0
KVP1 081428Z 01004KT M02/M03 A303 RMK A01 T10191033  RH  090%=      5-min Rain = 0
KVP1 081429Z 01006KT M02/M03 A303 RMK A01 T10191033  RH  090%=      5-min Rain = 0
KVP1 081430Z 00007KT M02/M03 A303 RMK A01 T10191033  RH  090%=      5-min Rain = 0
KVP1 081431Z 01006KT M02/M03 A303 RMK A01 T10191034  RH  090%=      5-min Rain = 0
KVP1 081432Z 01007KT M02/M03 A303 RMK A01 T10191034  RH  090%=      5-min Rain = 0
KVP1 081433Z 00006KT M02/M03 A303 RMK A01 T10191034  RH  090%=      5-min Rain = 0
KVP1 081434Z 01006KT M02/M03 A303 RMK A01 T10191034  RH  090%=      5-min Rain = 0
KVP1 081435Z 01006KT M02/M03 A303 RMK A01 T10191034  RH  090%=      5-min Rain = 0
KVP1 081436Z 00006KT M02/M03 A303 RMK A01 T10191034  RH  090%=      5-min Rain = 0
KVP1 081437Z 00005KT M02/M03 A303 RMK A01 T10191034  RH  090%=      5-min Rain = 0
KVP1 081438Z 36005KT M02/M03 A303 RMK A01 T10191033  RH  090%=      5-min Rain = 0
KVP1 081439Z 00006KT M02/M03 A303 RMK A01 T10191033  RH  090%=      5-min Rain = 0
KVP1 081440Z 36006KT M02/M03 A303 RMK A01 T10191033  RH  090%=      5-min Rain = 0
KVP1 081441Z 00006KT M02/M03 A303 RMK A01 T10191033  RH  090%=      5-min Rain = 0
KVP1 081442Z 00005KT M02/M03 A303 RMK A01 T10191034  RH  090%=      5-min Rain = 0
KVP1 081443Z 00006KT M02/M03 A303 RMK A01 T10191034  RH  090%=      5-min Rain = 0
KVP1 081444Z 01005KT M02/M03 A303 RMK A01 T10191034  RH  090%=      5-min Rain = 0
KVP1 081445Z 00005KT M02/M03 A303 RMK A01 T10191033  RH  090%=      5-min Rain = 0
KVP1 081446Z 00004KT M02/M03 A303 RMK A01 T10191032  RH  091%=      5-min Rain = 0
KVP1 081447Z 00005KT M02/M03 A303 RMK A01 T10191032  RH  091%=      5-min Rain = 0
KVP1 081448Z 00005KT M02/M03 A303 RMK A01 T10191032  RH  091%=      5-min Rain = 0
KVP1 081449Z 00005KT M02/M03 A303 RMK A01 T10191033  RH  090%=      5-min Rain = 0
KVP1 081450Z 36006KT M02/M03 A303 RMK A01 T10191033  RH  090%=      5-min Rain = 0
KVP1 081451Z 00005KT M02/M03 A303 RMK A01 T10191034  RH  090%=      5-min Rain = 0
KVP1 081452Z 01006KT M02/M03 A303 RMK A01 T10191034  RH  090%=      5-min Rain = 0
KVP1 081453Z 00006KT M02/M03 A303 RMK A01 T10191034  RH  089%=      5-min Rain = 0
KVP1 081454Z 00007KT M02/M04 A303 RMK A01 T10181035  RH  089%=      5-min Rain = 0
KVP1 081455Z 00005KT M02/M04 A303 RMK A01 T10191037  RH  088%=      5-min Rain = 0
KVP1 081456Z 36005KT M02/M04 A303 RMK A01 T10191037  RH  088%=      5-min Rain = 0
KVP1 081457Z 00007KT M02/M04 A303 RMK A01 T10191036  RH  088%=      5-min Rain = 0
KVP1 081458Z 36007KT M02/M04 A303 RMK A01 T10191037  RH  088%=      5-min Rain = 0
KVP1 081459Z 01006KT M02/M04 A3031 RMK A01 T10191037  RH  087%=      5-min Rain = 0
KVP1 081500Z 36006KT M02/M04 A303 RMK A01 T10191037  RH  087%=      5-min Rain = 0
KVP1 081501Z 36007KT M02/M04 A303 RMK A01 T10191038  RH  087%=      5-min Rain = 0
KVP1 081502Z 36007KT M02/M04 A303 RMK A01 T10191038  RH  087%=      5-min Rain = 0
KVP1 081503Z 00007KT M02/M04 A303 RMK A01 T10191038  RH  087%=      5-min Rain = 0
KVP1 081504Z 36007KT M02/M04 A3031 RMK A01 T10191038  RH  087%=      5-min Rain = 0
KVP1 081505Z 36007KT M02/M04 A3031 RMK A01 T10191038  RH  087%=      5-min Rain = 0
KVP1 081506Z 36006KT M02/M04 A3031 RMK A01 T10191038  RH  086%=      5-min Rain = 0
KVP1 081507Z 36007KT M02/M04 A3031 RMK A01 T10191039  RH  086%=      5-min Rain = 0
KVP1 081508Z 36006KT M02/M04 A3031 RMK A01 T10191039  RH  086%=      5-min Rain = 0
KVP1 081509Z 35006KT M02/M04 A3031 RMK A01 T10191039  RH  086%=      5-min Rain = 0
KVP1 081510Z 35006KT M02/M04 A3031 RMK A01 T10191038  RH  087%=      5-min Rain = 0
KVP1 081511Z 35006KT M02/M04 A3031 RMK A01 T10191038  RH  087%=      5-min Rain = 0
KVP1 081512Z 36006KT M02/M04 A3031 RMK A01 T10191038  RH  087%=      5-min Rain = 0
KVP1 081513Z 36006KT M02/M04 A3031 RMK A01 T10191038  RH  087%=      5-min Rain = 0
KVP1 081514Z 35006KT M02/M04 A3031 RMK A01 T10191037  RH  087%=      5-min Rain = 0
KVP1 081515Z 36005KT M02/M04 A3031 RMK A01 T10191037  RH  087%=      5-min Rain = 0
KVP1 081516Z 36005KT M02/M04 A3031 RMK A01 T10191037  RH  087%=      5-min Rain = 0
KVP1 081517Z 35005KT M02/M04 A3031 RMK A01 T10181037  RH  087%=      5-min Rain = 0
KVP1 081518Z 35005KT M02/M04 A3031 RMK A01 T10181036  RH  088%=      5-min Rain = 0
KVP1 081519Z 35005KT M02/M04 A3031 RMK A01 T10181036  RH  088%=      5-min Rain = 0
KVP1 081520Z 35005KT M02/M04 A3031 RMK A01 T10181036  RH  088%=      5-min Rain = 0
KVP1 081521Z 35006KT M02/M04 A3031 RMK A01 T10181036  RH  088%=      5-min Rain = 0
KVP1 081522Z 35005KT M02/M04 A3031 RMK A01 T10181036  RH  088%=      5-min Rain = 0
KVP1 081523Z 35005KT M02/M04 A3031 RMK A01 T10181036  RH  088%=      5-min Rain = 0
KVP1 081524Z 34005KT M02/M04 A3031 RMK A01 T10181036  RH  088%=      5-min Rain = 0
KVP1 081525Z 35005KT M02/M04 A3031 RMK A01 T10181035  RH  088%=      5-min Rain = 0
KVP1 081526Z 35006KT M02/M04 A3031 RMK A01 T10181035  RH  088%=      5-min Rain = 0
KVP1 081527Z 36006KT M02/M04 A3031 RMK A01 T10181036  RH  087%=      5-min Rain = 0
KVP1 081528Z 35007KT M02/M04 A3031 RMK A01 T10171037  RH  087%=      5-min Rain = 0
KVP1 081529Z 35007KT M02/M04 A3031 RMK A01 T10181038  RH  086%=      5-min Rain = 0
KVP1 081530Z 35006KT M02/M04 A3031 RMK A01 T10181039  RH  085%=      5-min Rain = 0
KVP1 081531Z 34006KT M02/M04 A3031 RMK A01 T10171039  RH  085%=      5-min Rain = 0
KVP1 081532Z 35006KT M02/M04 A3031 RMK A01 T10181040  RH  085%=      5-min Rain = 0
KVP1 081533Z 35007KT M02/M04 A3031 RMK A01 T10181040  RH  085%=      5-min Rain = 0
KVP1 081534Z 35007KT M02/M04 A3031 RMK A01 T10181041  RH  084%=      5-min Rain = 0
KVP1 081535Z 35007KT M02/M04 A3031 RMK A01 T10181041  RH  084%=      5-min Rain = 0
KVP1 081536Z 35006KT M02/M04 A3031 RMK A01 T10181041  RH  084%=      5-min Rain = 0
KVP1 081537Z 35006KT M02/M04 A3031 RMK A01 T10181041  RH  085%=      5-min Rain = 0
KVP1 081538Z 34007KT M02/M04 A3031 RMK A01 T10181039  RH  085%=      5-min Rain = 0
KVP1 081539Z 34008KT M02/M04 A3031 RMK A01 T10181039  RH  085%=      5-min Rain = 0
KVP1 081540Z 34007KT M02/M04 A3031 RMK A01 T10171041  RH  084%=      5-min Rain = 0
KVP1 081541Z 34007KT M02/M04 A3031 RMK A01 T10181042  RH  084%=      5-min Rain = 0
KVP1 081542Z 34007KT M02/M04 A3031 RMK A01 T10171040  RH  084%=      5-min Rain = 0
KVP1 081543Z 35006KT M02/M04 A3031 RMK A01 T10171041  RH  084%=      5-min Rain = 0
KVP1 081544Z 35006KT M02/M04 A3031 RMK A01 T10171041  RH  084%=      5-min Rain = 0
KVP1 081545Z 35008KT M02/M04 A3031 RMK A01 T10171042  RH  083%=      5-min Rain = 0
KVP1 081546Z 35007KT M02/M04 A3031 RMK A01 T10171043  RH  083%=      5-min Rain = 0
KVP1 081547Z 35007KT M02/M04 A3031 RMK A01 T10171043  RH  083%=      5-min Rain = 0
KVP1 081548Z 35007KT M02/M04 A3031 RMK A01 T10171043  RH  083%=      5-min Rain = 0
KVP1 081549Z 35006KT M02/M04 A3031 RMK A01 T10171042  RH  083%=      5-min Rain = 0
KVP1 081550Z 34008KT M02/M04 A3031 RMK A01 T10171042  RH  083%=      5-min Rain = 0
KVP1 081551Z 35009KT M02/M04 A3032 RMK A01 T10171043  RH  082%=      5-min Rain = 0
KVP1 081552Z 34007KT M02/M04 A3032 RMK A01 T10171044  RH  082%=      5-min Rain = 0
KVP1 081553Z 35007KT M02/M04 A3032 RMK A01 T10171043  RH  083%=      5-min Rain = 0
KVP1 081554Z 34008KT M02/M04 A3032 RMK A01 T10181043  RH  083%=      5-min Rain = 0
KVP1 081555Z 34007KT M02/M05 A3032 RMK A01 T10181045  RH  082%=      5-min Rain = 0
KVP1 081556Z 35008KT M02/M04 A3031 RMK A01 T10171044  RH  082%=      5-min Rain = 0
KVP1 081557Z 34006KT M02/M04 A3031 RMK A01 T10171044  RH  082%=      5-min Rain = 0
KVP1 081558Z 34008KT M02/M04 A3031 RMK A01 T10171043  RH  082%=      5-min Rain = 0
KVP1 081559Z 35007KT M02/M04 A3031 RMK A01 T10171043  RH  083%=      5-min Rain = 0
KVP1 081600Z 35007KT M02/M04 A3031 RMK A01 T10171042  RH  083%=      5-min Rain = 0
KVP1 081601Z 35006KT M02/M04 A3031 RMK A01 T10181043  RH  083%=      5-min Rain = 0
KVP1 081602Z 35005KT M02/M04 A3031 RMK A01 T10171043  RH  082%=      5-min Rain = 0
KVP1 081603Z 35005KT M02/M04 A3031 RMK A01 T10171043  RH  083%=      5-min Rain = 0
KVP1 081604Z 35005KT M02/M04 A3031 RMK A01 T10171042  RH  083%=      5-min Rain = 0
KVP1 081605Z 35006KT M02/M04 A3031 RMK A01 T10171041  RH  083%=      5-min Rain = 0
KVP1 081606Z 35006KT M02/M04 A3031 RMK A01 T10171042  RH  083%=      5-min Rain = 0
KVP1 081607Z 34007KT M02/M04 A3031 RMK A01 T10171042  RH  083%=      5-min Rain = 0
KVP1 081608Z 35006KT M02/M04 A3031 RMK A01 T10171043  RH  083%=      5-min Rain = 0
KVP1 081609Z 35005KT M02/M04 A3031 RMK A01 T10171043  RH  083%=      5-min Rain = 0
KVP1 081610Z 35006KT M02/M04 A3031 RMK A01 T10171041  RH  083%=      5-min Rain = 0
KVP1 081611Z 35006KT M02/M04 A3031 RMK A01 T10161041  RH  084%=      5-min Rain = 0
KVP1 081612Z 35007KT M02/M04 A3031 RMK A01 T10161042  RH  082%=      5-min Rain = 0
KVP1 081613Z 34006KT M02/M04 A3031 RMK A01 T10171043  RH  082%=      5-min Rain = 0
KVP1 081614Z 35007KT M02/M04 A3031 RMK A01 T10171042  RH  083%=      5-min Rain = 0
KVP1 081615Z 35005KT M02/M04 A3031 RMK A01 T10171042  RH  083%=      5-min Rain = 0
KVP1 081616Z 34007KT M02/M04 A3031 RMK A01 T10161042  RH  083%=      5-min Rain = 0
KVP1 081617Z 34006KT M02/M04 A3031 RMK A01 T10161042  RH  082%=      5-min Rain = 0
KVP1 081618Z 34007KT M02/M04 A3031 RMK A01 T10161042  RH  083%=      5-min Rain = 0
KVP1 081619Z 34007KT M02/M04 A3031 RMK A01 T10171043  RH  082%=      5-min Rain = 0
KVP1 081620Z 34006KT M02/M04 A3031 RMK A01 T10171044  RH  082%=      5-min Rain = 0
KVP1 081621Z 34007KT M02/M04 A3031 RMK A01 T10161044  RH  082%=      5-min Rain = 0
KVP1 081622Z 34008KT M02/M05 A3031 RMK A01 T10161045  RH  081%=      5-min Rain = 0
KVP1 081623Z 34007KT M02/M05 A3031 RMK A01 T10171045  RH  081%=      5-min Rain = 0
KVP1 081624Z 34007KT M02/M04 A3032 RMK A01 T10161044  RH  081%=      5-min Rain = 0
KVP1 081625Z 34006KT M02/M04 A3032 RMK A01 T10161043  RH  082%=      5-min Rain = 0
KVP1 081626Z 35006KT M02/M04 A3032 RMK A01 T10161042  RH  082%=      5-min Rain = 0
KVP1 081627Z 35005KT M02/M04 A3032 RMK A01 T10161043  RH  082%=      5-min Rain = 0
KVP1 081628Z 34005KT M02/M04 A3032 RMK A01 T10161043  RH  082%=      5-min Rain = 0
KVP1 081629Z 34006KT M02/M04 A3032 RMK A01 T10161044  RH  082%=      5-min Rain = 0
KVP1 081630Z 34007KT M02/M04 A3032 RMK A01 T10161043  RH  082%=      5-min Rain = 0
KVP1 081631Z 34007KT M02/M04 A3032 RMK A01 T10161044  RH  081%=      5-min Rain = 0
KVP1 081632Z 34007KT M02/M04 A3032 RMK A01 T10161043  RH  082%=      5-min Rain = 0
KVP1 081633Z 34006KT M02/M04 A3032 RMK A01 T10161042  RH  082%=      5-min Rain = 0
KVP1 081634Z 34005KT M02/M04 A3032 RMK A01 T10151041  RH  083%=      5-min Rain = 0
KVP1 081635Z 35006KT M02/M04 A3032 RMK A01 T10151040  RH  083%=      5-min Rain = 0
KVP1 081636Z 34006KT M01/M04 A3032 RMK A01 T10141041  RH  082%=      5-min Rain = 0
KVP1 081637Z 34006KT M01/M04 A3032 RMK A01 T10141041  RH  082%=      5-min Rain = 0
KVP1 081638Z 34005KT M01/M04 A3032 RMK A01 T10141041  RH  082%=      5-min Rain = 0
KVP1 081639Z 35006KT M01/M04 A3032 RMK A01 T10141041  RH  082%=      5-min Rain = 0
KVP1 081640Z 34006KT M01/M04 A3032 RMK A01 T10141044  RH  081%=      5-min Rain = 0
KVP1 081641Z 35005KT M01/M04 A3032 RMK A01 T10141044  RH  080%=      5-min Rain = 0
KVP1 081642Z 35004KT M01/M04 A3032 RMK A01 T10141043  RH  080%=      5-min Rain = 0
KVP1 081643Z 00004KT M01/M04 A3032 RMK A01 T10141044  RH  080%=      5-min Rain = 0
KVP1 081644Z 01004KT M01/M04 A3032 RMK A01 T10141044  RH  080%=      5-min Rain = 0
KVP1 081645Z 03003KT M01/M05 A3032 RMK A01 T10141045  RH  079%=      5-min Rain = 0
KVP1 081646Z 03005KT M01/M05 A3032 RMK A01 T10141045  RH  079%=      5-min Rain = 0
KVP1 081647Z 03006KT M01/M05 A3032 RMK A01 T10141045  RH  079%=      5-min Rain = 0
KVP1 081648Z 03005KT M01/M05 A3032 RMK A01 T10141048  RH  078%=      5-min Rain = 0
KVP1 081649Z 03005KT M01/M05 A3032 RMK A01 T10141048  RH  077%=      5-min Rain = 0
KVP1 081650Z 04004KT M01/M05 A3032 RMK A01 T10141048  RH  078%=      5-min Rain = 0
KVP1 081651Z 04005KT M01/M05 A3032 RMK A01 T10131046  RH  078%=      5-min Rain = 0
KVP1 081652Z 03005KT M01/M05 A3032 RMK A01 T10131048  RH  077%=      5-min Rain = 0
KVP1 081653Z 04004KT M01/M05 A3032 RMK A01 T10131048  RH  077%=      5-min Rain = 0
KVP1 081654Z 02005KT M01/M05 A3033 RMK A01 T10131047  RH  078%=      5-min Rain = 0
KVP1 081655Z 01005KT M01/M05 A3032 RMK A01 T10131048  RH  077%=      5-min Rain = 0
KVP1 081656Z 01005KT M01/M05 A3032 RMK A01 T10131050  RH  076%=      5-min Rain = 0
KVP1 081657Z 01004KT M01/M05 A3032 RMK A01 T10131051  RH  075%=      5-min Rain = 0
KVP1 081658Z 01005KT M01/M05 A3032 RMK A01 T10131050  RH  076%=      5-min Rain = 0
KVP1 081659Z 01006KT M01/M05 A3032 RMK A01 T10131052  RH  075%=      5-min Rain = 0
KVP1 081700Z 02005KT M01/M05 A3032 RMK A01 T10131053  RH  074%=      5-min Rain = 0
KVP1 081701Z 02005KT M01/M05 A3032 RMK A01 T10131053  RH  074%=      5-min Rain = 0
KVP1 081702Z 02004KT M01/M05 A3032 RMK A01 T10131052  RH  075%=      5-min Rain = 0
KVP1 081703Z 01005KT M01/M05 A3032 RMK A01 T10131052  RH  075%=      5-min Rain = 0
KVP1 081704Z 02005KT M01/M05 A3032 RMK A01 T10131054  RH  074%=      5-min Rain = 0
KVP1 081705Z 02006KT M01/M05 A3032 RMK A01 T10131054  RH  074%=      5-min Rain = 0
KVP1 081706Z 02006KT M01/M05 A3032 RMK A01 T10131054  RH  074%=      5-min Rain = 0
KVP1 081707Z 03005KT M01/M06 A3032 RMK A01 T10131055  RH  073%=      5-min Rain = 0
KVP1 081708Z 02006KT M01/M05 A3032 RMK A01 T10131053  RH  074%=      5-min Rain = 0
KVP1 081709Z 02005KT M01/M05 A3032 RMK A01 T10131053  RH  074%=      5-min Rain = 0
KVP1 081710Z 03003KT M01/M05 A3032 RMK A01 T10131052  RH  074%=      5-min Rain = 0
KVP1 081711Z 03005KT M01/M05 A3032 RMK A01 T10121051  RH  075%=      5-min Rain = 0
KVP1 081712Z 02005KT M01/M05 A3032 RMK A01 T10131053  RH  074%=      5-min Rain = 0
KVP1 081713Z 03005KT M01/M05 A3032 RMK A01 T10121054  RH  073%=      5-min Rain = 0
KVP1 081714Z 02006KT M01/M06 A3032 RMK A01 T10121055  RH  073%=      5-min Rain = 0
KVP1 081715Z 02005KT M01/M05 A3032 RMK A01 T10131054  RH  073%=      5-min Rain = 0
KVP1 081716Z 03004KT M01/M06 A3032 RMK A01 T10121055  RH  073%=      5-min Rain = 0
KVP1 081717Z 02003KT M01/M05 A3032 RMK A01 T10121052  RH  074%=      5-min Rain = 0
KVP1 081718Z 36005KT M01/M05 A3032 RMK A01 T10121050  RH  075%=      5-min Rain = 0
KVP1 081719Z 01005KT M01/M05 A3032 RMK A01 T10111051  RH  074%=      5-min Rain = 0
KVP1 081720Z 01004KT M01/M05 A3032 RMK A01 T10111051  RH  074%=      5-min Rain = 0
KVP1 081721Z 02005KT M01/M05 A3032 RMK A01 T10111050  RH  075%=      5-min Rain = 0
KVP1 081722Z 01005KT M01/M05 A3032 RMK A01 T10121050  RH  075%=      5-min Rain = 0
KVP1 081723Z 02004KT M01/M05 A3032 RMK A01 T10121051  RH  075%=      5-min Rain = 0
KVP1 081724Z 01004KT M01/M05 A3032 RMK A01 T10121049  RH  075%=      5-min Rain = 0
KVP1 081725Z 01004KT M01/M05 A3032 RMK A01 T10121049  RH  076%=      5-min Rain = 0
KVP1 081726Z 02004KT M01/M05 A3032 RMK A01 T10111051  RH  074%=      5-min Rain = 0
KVP1 081727Z 03004KT M01/M05 A3032 RMK A01 T10121053  RH  074%=      5-min Rain = 0
KVP1 081728Z 03004KT M01/M05 A3032 RMK A01 T10121052  RH  074%=      5-min Rain = 0
KVP1 081729Z 02004KT M01/M05 A3032 RMK A01 T10121050  RH  076%=      5-min Rain = 0
KVP1 081730Z 02004KT M01/M05 A3032 RMK A01 T10121049  RH  076%=      5-min Rain = 0
KVP1 081731Z 02004KT M01/M05 A3032 RMK A01 T10121052  RH  074%=      5-min Rain = 0
KVP1 081732Z 02004KT M01/M05 A3032 RMK A01 T10121053  RH  074%=      5-min Rain = 0
KVP1 081733Z 03004KT M01/M05 A3032 RMK A01 T10121051  RH  075%=      5-min Rain = 0
KVP1 081734Z 02005KT M01/M05 A3032 RMK A01 T10121047  RH  077%=      5-min Rain = 0
KVP1 081735Z 02004KT M01/M05 A3032 RMK A01 T10111047  RH  077%=      5-min Rain = 0
KVP1 081736Z 02005KT M01/M05 A3032 RMK A01 T10111049  RH  075%=      5-min Rain = 0
KVP1 081737Z 02004KT M01/M05 A3032 RMK A01 T10121048  RH  076%=      5-min Rain = 0
KVP1 081738Z 02004KT M01/M05 A3032 RMK A01 T10121047  RH  077%=      5-min Rain = 0
KVP1 081739Z 03004KT M01/M05 A3032 RMK A01 T10121049  RH  076%=      5-min Rain = 0
KVP1 081740Z 02004KT M01/M05 A3032 RMK A01 T10111047  RH  077%=      5-min Rain = 0
KVP1 081741Z 00005KT M01/M05 A3032 RMK A01 T10111047  RH  076%=      5-min Rain = 0
KVP1 081742Z 00004KT M01/M05 A3032 RMK A01 T10121050  RH  075%=      5-min Rain = 0
KVP1 081743Z 35004KT M01/M05 A3032 RMK A01 T10111050  RH  075%=      5-min Rain = 0
KVP1 081744Z 36004KT M01/M05 A3032 RMK A01 T10121050  RH  075%=      5-min Rain = 0
KVP1 081745Z 36004KT M01/M05 A3032 RMK A01 T10121050  RH  075%=      5-min Rain = 0
KVP1 081746Z 36004KT M01/M05 A3032 RMK A01 T10121049  RH  076%=      5-min Rain = 0
KVP1 081747Z 36004KT M01/M05 A3032 RMK A01 T10121049  RH  075%=      5-min Rain = 0
KVP1 081748Z 01003KT M01/M05 A3032 RMK A01 T10111049  RH  075%=      5-min Rain = 0
KVP1 081749Z 00002KT M01/M05 A3032 RMK A01 T10111047  RH  077%=      5-min Rain = 0
KVP1 081750Z 01003KT M01/M05 A3032 RMK A01 T10101047  RH  076%=      5-min Rain = 0
KVP1 081751Z 01003KT M01/M05 A3031 RMK A01 T10101049  RH  075%=      5-min Rain = 0
KVP1 081752Z 03003KT M01/M05 A3031 RMK A01 T10101048  RH  076%=      5-min Rain = 0
KVP1 081753Z 02003KT M01/M05 A3031 RMK A01 T10101047  RH  076%=      5-min Rain = 0
KVP1 081754Z 03003KT M01/M05 A3031 RMK A01 T10101047  RH  076%=      5-min Rain = 0
KVP1 081755Z 03003KT M01/M05 A3031 RMK A01 T10101046  RH  077%=      5-min Rain = 0
KVP1 081756Z 04004KT M01/M05 A3031 RMK A01 T10101045  RH  077%=      5-min Rain = 0
KVP1 081757Z 04003KT M01/M05 A3031 RMK A01 T10101046  RH  077%=      5-min Rain = 0
KVP1 081758Z 03003KT M01/M05 A3031 RMK A01 T10101046  RH  076%=      5-min Rain = 0
KVP1 081759Z 06003KT M01/M05 A3031 RMK A01 T10101047  RH  076%=      5-min Rain = 0
KVP1 081800Z 04003KT M01/M05 A3031 RMK A01 T10101046  RH  076%=      5-min Rain = 0
KVP1 081801Z 03003KT M01/M05 A3031 RMK A01 T10101045  RH  077%=      5-min Rain = 0
KVP1 081802Z 01003KT M01/M05 A3031 RMK A01 T10101049  RH  075%=      5-min Rain = 0
KVP1 081803Z 01003KT M01/M05 A3031 RMK A01 T10101050  RH  074%=      5-min Rain = 0
KVP1 081804Z 02002KT M01/M05 A3031 RMK A01 T10101051  RH  073%=      5-min Rain = 0
KVP1 081805Z 02002KT M01/M05 A3031 RMK A01 T10101050  RH  074%=      5-min Rain = 0
KVP1 081806Z 02002KT M01/M05 A3031 RMK A01 T10091048  RH  074%=      5-min Rain = 0
KVP1 081807Z 04003KT M01/M05 A3031 RMK A01 T10081047  RH  075%=      5-min Rain = 0
KVP1 081808Z 04004KT M01/M05 A303 RMK A01 T10071049  RH  074%=      5-min Rain = 0
KVP1 081809Z 05003KT M01/M05 A303 RMK A01 T10071049  RH  073%=      5-min Rain = 0
KVP1 081810Z 05002KT M01/M05 A303 RMK A01 T10071049  RH  073%=      5-min Rain = 0
KVP1 081811Z 03001KT M01/M05 A303 RMK A01 T10061049  RH  073%=      5-min Rain = 0
KVP1 081812Z 03002KT M01/M05 A303 RMK A01 T10051046  RH  074%=      5-min Rain = 0
KVP1 081813Z 03002KT M00/M05 A303 RMK A01 T10041047  RH  073%=      5-min Rain = 0
KVP1 081814Z 02003KT M00/M05 A303 RMK A01 T10041048  RH  072%=      5-min Rain = 0
KVP1 081815Z 04002KT M00/M05 A303 RMK A01 T10041050  RH  071%=      5-min Rain = 0
KVP1 081816Z 04003KT M00/M05 A303 RMK A01 T10031050  RH  071%=      5-min Rain = 0
KVP1 081817Z 03003KT M00/M05 A303 RMK A01 T10041049  RH  072%=      5-min Rain = 0
KVP1 081818Z 01003KT M00/M05 A303 RMK A01 T10031049  RH  071%=      5-min Rain = 0
KVP1 081819Z 02003KT M00/M05 A303 RMK A01 T10031050  RH  071%=      5-min Rain = 0
KVP1 081820Z 02003KT M00/M05 A303 RMK A01 T10041050  RH  071%=      5-min Rain = 0
KVP1 081821Z 02003KT M00/M05 A303 RMK A01 T10041049  RH  072%=      5-min Rain = 0
KVP1 081822Z 01004KT M00/M05 A303 RMK A01 T10041048  RH  072%=      5-min Rain = 0
KVP1 081823Z 02004KT M01/M05 A303 RMK A01 T10051049  RH  072%=      5-min Rain = 0
KVP1 081824Z 02003KT M01/M05 A303 RMK A01 T10061050  RH  072%=      5-min Rain = 0
KVP1 081825Z 01003KT M01/M05 A3029 RMK A01 T10061049  RH  073%=      5-min Rain = 0
KVP1 081826Z 02003KT M01/M05 A3029 RMK A01 T10061048  RH  073%=      5-min Rain = 0
KVP1 081827Z 02003KT M01/M05 A3029 RMK A01 T10071048  RH  074%=      5-min Rain = 0
KVP1 081828Z 02002KT M01/M05 A3029 RMK A01 T10071047  RH  074%=      5-min Rain = 0
KVP1 081829Z 01002KT M01/M04 A3029 RMK A01 T10071044  RH  076%=      5-min Rain = 0
KVP1 081830Z 04003KT M01/M04 A3029 RMK A01 T10051042  RH  077%=      5-min Rain = 0
KVP1 081831Z 04003KT M01/M04 A3029 RMK A01 T10051042  RH  076%=      5-min Rain = 0
KVP1 081832Z 04003KT M01/M05 A3029 RMK A01 T10051046  RH  074%=      5-min Rain = 0
KVP1 081833Z 03002KT M01/M05 A3029 RMK A01 T10061048  RH  073%=      5-min Rain = 0
KVP1 081834Z 03002KT M01/M05 A3029 RMK A01 T10061049  RH  073%=      5-min Rain = 0
KVP1 081835Z 04001KT M01/M05 A3029 RMK A01 T10061050  RH  072%=      5-min Rain = 0
KVP1 081836Z 04001KT M01/M05 A3029 RMK A01 T10061048  RH  073%=      5-min Rain = 0
KVP1 081837Z 02002KT M01/M05 A3029 RMK A01 T10061045  RH  074%=      5-min Rain = 0
KVP1 081838Z 01002KT M01/M05 A3029 RMK A01 T10051045  RH  074%=      5-min Rain = 0
KVP1 081839Z 36002KT M00/M05 A3029 RMK A01 T10041049  RH  072%=      5-min Rain = 0
KVP1 081840Z 35002KT M01/M05 A3029 RMK A01 T10051051  RH  071%=      5-min Rain = 0
KVP1 081841Z 36001KT M01/M05 A3029 RMK A01 T10051054  RH  069%=      5-min Rain = 0
KVP1 081842Z 02002KT M01/M05 A3029 RMK A01 T10051054  RH  070%=      5-min Rain = 0
KVP1 081843Z 03001KT M01/M05 A3029 RMK A01 T10051048  RH  073%=      5-min Rain = 0
KVP1 081844Z 03002KT M01/M05 A3029 RMK A01 T10051047  RH  073%=      5-min Rain = 0
KVP1 081845Z 36001KT M00/M05 A3029 RMK A01 T10041049  RH  072%=      5-min Rain = 0
KVP1 081846Z 36001KT M00/M05 A3029 RMK A01 T10041049  RH  072%=      5-min Rain = 0
KVP1 081847Z 36001KT M00/M05 A3029 RMK A01 T10041051  RH  070%=      5-min Rain = 0
KVP1 081848Z 03000KT M00/M05 A3029 RMK A01 T10041053  RH  070%=      5-min Rain = 0
KVP1 081849Z 01000KT M00/M05 A3028 RMK A01 T10041051  RH  070%=      5-min Rain = 0
KVP1 081850Z 33001KT M00/M05 A3028 RMK A01 T10041051  RH  071%=      5-min Rain = 0
KVP1 081851Z 36002KT M00/M05 A3028 RMK A01 T10041053  RH  070%=      5-min Rain = 0
KVP1 081852Z 01001KT M00/M05 A3028 RMK A01 T10031052  RH  070%=      5-min Rain = 0
KVP1 081853Z 02002KT M00/M05 A3028 RMK A01 T10041054  RH  069%=      5-min Rain = 0
KVP1 081854Z 03002KT M00/M05 A3028 RMK A01 T10041053  RH  069%=      5-min Rain = 0
KVP1 081855Z 03001KT M00/M05 A3028 RMK A01 T10041050  RH  071%=      5-min Rain = 0
KVP1 081856Z 02001KT M00/M05 A3028 RMK A01 T10031046  RH  073%=      5-min Rain = 0
KVP1 081857Z 02002KT M00/M05 A3028 RMK A01 T10031046  RH  073%=      5-min Rain = 0
KVP1 081858Z 35001KT M00/M05 A3028 RMK A01 T10021047  RH  072%=      5-min Rain = 0
KVP1 081859Z 33003KT M00/M05 A3028 RMK A01 T10011046  RH  072%=      5-min Rain = 0
KVP1 081900Z 35002KT M00/M05 A3028 RMK A01 T10011051  RH  069%=      5-min Rain = 0
KVP1 081901Z 35002KT M00/M05 A3028 RMK A01 T10011052  RH  069%=      5-min Rain = 0
KVP1 081902Z 34002KT M00/M05 A3028 RMK A01 T10021054  RH  068%=      5-min Rain = 0
KVP1 081903Z 33002KT M00/M05 A3028 RMK A01 T10021051  RH  069%=      5-min Rain = 0
KVP1 081904Z 32003KT M00/M05 A3028 RMK A01 T10011053  RH  068%=      5-min Rain = 0
KVP1 081905Z 33003KT M00/M05 A3028 RMK A01 T10011051  RH  069%=      5-min Rain = 0
KVP1 081906Z 33003KT M00/M05 A3028 RMK A01 T10011050  RH  070%=      5-min Rain = 0
KVP1 081907Z 33004KT M00/M05 A3028 RMK A01 T10011051  RH  069%=      5-min Rain = 0.02
KVP1 081908Z 33003KT M00/M06 A3028 RMK A01 T10011055  RH  067%=      5-min Rain = 0
KVP1 081909Z 33003KT M00/M05 A3028 RMK A01 T10021054  RH  068%=      5-min Rain = 0
KVP1 081910Z 34003KT M00/M05 A3028 RMK A01 T10021052  RH  069%=      5-min Rain = 0
KVP1 081911Z 34002KT M00/M05 A3028 RMK A01 T10021053  RH  068%=      5-min Rain = 0
KVP1 081912Z 34002KT M00/M06 A3028 RMK A01 T10021055  RH  067%=      5-min Rain = 0
KVP1 081913Z 35002KT M00/M06 A3027 RMK A01 T10021056  RH  067%=      5-min Rain = 0
KVP1 081914Z 34001KT M00/M06 A3027 RMK A01 T10021056  RH  067%=      5-min Rain = 0
KVP1 081915Z 33002KT M00/M06 A3027 RMK A01 T10021056  RH  067%=      5-min Rain = 0.01
KVP1 081916Z 33003KT M00/M05 A3027 RMK A01 T10011052  RH  069%=      5-min Rain = 0
KVP1 081917Z 31002KT 00/05 A3027 RMK A01 T00-00-48  RH  070%=      5-min Rain = 0
KVP1 081918Z 32003KT 00/05 A3027 RMK A01 T00000-51  RH  068%=      5-min Rain = 0
KVP1 081919Z 32002KT 00/05 A3027 RMK A01 T00000-53  RH  068%=      5-min Rain = 0
KVP1 081920Z 30003KT 00/05 A3027 RMK A01 T00000-52  RH  068%=      5-min Rain = 0
KVP1 081921Z 32003KT 00/05 A3027 RMK A01 T00000-53  RH  068%=      5-min Rain = 0
KVP1 081922Z 33003KT 00/05 A3027 RMK A01 T00-00-52  RH  068%=      5-min Rain = 0
KVP1 081923Z 31002KT 00/05 A3027 RMK A01 T00000-50  RH  069%=      5-min Rain = 0
KVP1 081924Z 31003KT 00/05 A3027 RMK A01 T00000-45  RH  071%=      5-min Rain = 0
KVP1 081925Z 31003KT 00/M04 A3027 RMK A01 T00011044  RH  072%=      5-min Rain = 0
KVP1 081926Z 31003KT 00/M04 A3027 RMK A01 T00021043  RH  072%=      5-min Rain = 0
KVP1 081927Z 31003KT 00/M05 A3027 RMK A01 T00021045  RH  071%=      5-min Rain = 0
KVP1 081928Z 33003KT 00/M05 A3027 RMK A01 T00021047  RH  070%=      5-min Rain = 0
KVP1 081929Z 33002KT 00/M05 A3027 RMK A01 T00011047  RH  070%=      5-min Rain = 0
KVP1 081930Z 32002KT 00/M05 A3027 RMK A01 T00011048  RH  069%=      5-min Rain = 0
KVP1 081931Z 32002KT 00/M05 A3027 RMK A01 T00011050  RH  069%=      5-min Rain = 0
KVP1 081932Z 32001KT 00/M05 A3027 RMK A01 T00011047  RH  070%=      5-min Rain = 0.01
KVP1 081933Z 33002KT 00/M04 A3027 RMK A01 T00011044  RH  071%=      5-min Rain = 0
KVP1 081934Z 33001KT 00/M05 A3027 RMK A01 T00021045  RH  071%=      5-min Rain = 0.01
KVP1 081935Z 34003KT 00/M04 A3027 RMK A01 T00031039  RH  074%=      5-min Rain = 0
KVP1 081936Z 32003KT 00/M04 A3027 RMK A01 T00031041  RH  072%=      5-min Rain = 0
KVP1 081937Z 31003KT 00/M04 A3027 RMK A01 T00041039  RH  073%=      5-min Rain = 0
KVP1 081938Z 32004KT 00/M04 A3027 RMK A01 T00041041  RH  072%=      5-min Rain = 0
KVP1 081939Z 33004KT 00/M04 A3027 RMK A01 T00041042  RH  071%=      5-min Rain = 0
KVP1 081940Z 32004KT 00/M04 A3027 RMK A01 T00041041  RH  072%=      5-min Rain = 0
KVP1 081941Z 33004KT 00/M04 A3027 RMK A01 T00041040  RH  072%=      5-min Rain = 0
KVP1 081942Z 33003KT 00/M04 A3027 RMK A01 T00041040  RH  072%=      5-min Rain = 0
KVP1 081943Z 33003KT 01/M04 A3027 RMK A01 T00051036  RH  074%=      5-min Rain = 0
KVP1 081944Z 34003KT 01/M04 A3027 RMK A01 T00061038  RH  072%=      5-min Rain = 0
KVP1 081945Z 34002KT 01/M04 A3027 RMK A01 T00051042  RH  071%=      5-min Rain = 0
KVP1 081946Z 34002KT 01/M04 A3027 RMK A01 T00051040  RH  072%=      5-min Rain = 0
KVP1 081947Z 34002KT 01/M04 A3027 RMK A01 T00051039  RH  073%=      5-min Rain = 0
KVP1 081948Z 32002KT 01/M04 A3027 RMK A01 T00051037  RH  073%=      5-min Rain = 0
KVP1 081949Z 33002KT 01/M04 A3027 RMK A01 T00061036  RH  073%=      5-min Rain = 0
KVP1 081950Z 33003KT 01/M04 A3027 RMK A01 T00061039  RH  071%=      5-min Rain = 0
KVP1 081951Z 34003KT 01/M04 A3027 RMK A01 T00061040  RH  071%=      5-min Rain = 0
KVP1 081952Z 34004KT 01/M04 A3027 RMK A01 T00071038  RH  072%=      5-min Rain = 0
KVP1 081953Z 34003KT 01/M04 A3026 RMK A01 T00081038  RH  071%=      5-min Rain = 0
KVP1 081954Z 35003KT 01/M04 A3026 RMK A01 T00091036  RH  072%=      5-min Rain = 0.01
KVP1 081955Z 35002KT 01/M04 A3026 RMK A01 T00101043  RH  068%=      5-min Rain = 0
KVP1 081956Z 35003KT 01/M04 A3026 RMK A01 T00091043  RH  068%=      5-min Rain = 0
KVP1 081957Z 34004KT 01/M04 A3026 RMK A01 T00091037  RH  071%=      5-min Rain = 0.01
KVP1 081958Z 36003KT 01/M04 A3026 RMK A01 T00101037  RH  071%=      5-min Rain = 0
KVP1 081959Z 34002KT 01/M04 A3026 RMK A01 T00101039  RH  070%=      5-min Rain = 0
KVP1 082000Z 35003KT 01/M04 A3026 RMK A01 T00111035  RH  072%=      5-min Rain = 0
KVP1 082001Z 02003KT 01/M04 A3026 RMK A01 T00121035  RH  071%=      5-min Rain = 0
KVP1 082002Z 02003KT 01/M04 A3026 RMK A01 T00121036  RH  071%=      5-min Rain = 0
KVP1 082003Z 34003KT 01/M03 A3026 RMK A01 T00131034  RH  071%=      5-min Rain = 0
KVP1 082004Z 36004KT 01/M04 A3026 RMK A01 T00131035  RH  070%=      5-min Rain = 0.01
KVP1 082005Z 00004KT 01/M04 A3025 RMK A01 T00131037  RH  069%=      5-min Rain = 0
KVP1 082006Z 00003KT 01/M04 A3025 RMK A01 T00131039  RH  068%=      5-min Rain = 0.01
KVP1 082007Z 35004KT 01/M04 A3025 RMK A01 T00121040  RH  068%=      5-min Rain = 0
KVP1 082008Z 34004KT 01/M04 A3025 RMK A01 T00121039  RH  069%=      5-min Rain = 0
KVP1 082009Z 35005KT 01/M04 A3025 RMK A01 T00121039  RH  069%=      5-min Rain = 0
KVP1 082010Z 35004KT 01/M04 A3025 RMK A01 T00121041  RH  067%=      5-min Rain = 0
KVP1 082011Z 01003KT 01/M04 A3025 RMK A01 T00121041  RH  068%=      5-min Rain = 0
KVP1 082012Z 01004KT 01/M04 A3025 RMK A01 T00121035  RH  071%=      5-min Rain = 0
KVP1 082013Z 01004KT 01/M04 A3025 RMK A01 T00131036  RH  070%=      5-min Rain = 0
KVP1 082014Z 00004KT 01/M04 A3025 RMK A01 T00131035  RH  070%=      5-min Rain = 0.01
KVP1 082015Z 01003KT 01/M03 A3025 RMK A01 T00141034  RH  070%=      5-min Rain = 0
KVP1 082016Z 01004KT 02/M03 A3025 RMK A01 T00151032  RH  071%=      5-min Rain = 0
KVP1 082017Z 36003KT 02/M03 A3025 RMK A01 T00151033  RH  070%=      5-min Rain = 0
KVP1 082018Z 35004KT 02/M04 A3025 RMK A01 T00161035  RH  069%=      5-min Rain = 0
KVP1 082019Z 35004KT 02/M03 A3025 RMK A01 T00161033  RH  070%=      5-min Rain = 0
KVP1 082020Z 36005KT 02/M03 A3025 RMK A01 T00171031  RH  071%=      5-min Rain = 0.01
KVP1 082021Z 36004KT 02/M03 A3025 RMK A01 T00171034  RH  069%=      5-min Rain = 0
KVP1 082022Z 00005KT 02/M04 A3025 RMK A01 T00171035  RH  068%=      5-min Rain = 0
KVP1 082023Z 01004KT 02/M04 A3025 RMK A01 T00171036  RH  068%=      5-min Rain = 0
KVP1 082024Z 34004KT 02/M03 A3025 RMK A01 T00181033  RH  069%=      5-min Rain = 0
KVP1 082025Z 35005KT 02/M03 A3025 RMK A01 T00171034  RH  069%=      5-min Rain = 0
KVP1 082026Z 35005KT 02/M03 A3025 RMK A01 T00181033  RH  069%=      5-min Rain = 0
KVP1 082027Z 35004KT 02/M04 A3025 RMK A01 T00181036  RH  067%=      5-min Rain = 0
KVP1 082028Z 34004KT 02/M04 A3025 RMK A01 T00181035  RH  068%=      5-min Rain = 0
KVP1 082029Z 35005KT 02/M04 A3025 RMK A01 T00181038  RH  066%=      5-min Rain = 0
KVP1 082030Z 35004KT 02/M03 A3025 RMK A01 T00181034  RH  069%=      5-min Rain = 0
KVP1 082031Z 36004KT 02/M04 A3025 RMK A01 T00181037  RH  067%=      5-min Rain = 0
KVP1 082032Z 35005KT 02/M04 A3025 RMK A01 T00171039  RH  066%=      5-min Rain = 0
KVP1 082033Z 35005KT 02/M04 A3025 RMK A01 T00161040  RH  066%=      5-min Rain = 0
KVP1 082034Z 35005KT 02/M04 A3025 RMK A01 T00161038  RH  067%=      5-min Rain = 0.01
KVP1 082035Z 35005KT 02/M04 A3025 RMK A01 T00161040  RH  066%=      5-min Rain = 0
KVP1 082036Z 35005KT 02/M04 A3025 RMK A01 T00171041  RH  066%=      5-min Rain = 0
KVP1 082037Z 35006KT 02/M04 A3024 RMK A01 T00161041  RH  066%=      5-min Rain = 0
KVP1 082038Z 36004KT 02/M04 A3024 RMK A01 T00171038  RH  067%=      5-min Rain = 0
KVP1 082039Z 36004KT 02/M04 A3024 RMK A01 T00191036  RH  067%=      5-min Rain = 0
KVP1 082040Z 36004KT 02/M04 A3024 RMK A01 T00211035  RH  066%=      5-min Rain = 0
KVP1 082041Z 36004KT 02/M03 A3024 RMK A01 T00231032  RH  067%=      5-min Rain = 0
KVP1 082042Z 35004KT 03/M03 A3024 RMK A01 T00251034  RH  065%=      5-min Rain = 0
KVP1 082043Z 33005KT 03/M03 A3024 RMK A01 T00251034  RH  065%=      5-min Rain = 0.01
KVP1 082044Z 34006KT 03/M03 A3024 RMK A01 T00261032  RH  066%=      5-min Rain = 0
KVP1 082045Z 33005KT 03/M03 A3024 RMK A01 T00261034  RH  064%=      5-min Rain = 0
KVP1 082046Z 34007KT 03/M04 A3024 RMK A01 T00261036  RH  064%=      5-min Rain = 0
KVP1 082047Z 35005KT 03/M04 A3024 RMK A01 T00251038  RH  063%=      5-min Rain = 0
KVP1 082048Z 35005KT 02/M04 A3024 RMK A01 T00241036  RH  064%=      5-min Rain = 0
KVP1 082049Z 34006KT 03/M03 A3024 RMK A01 T00251034  RH  065%=      5-min Rain = 0
KVP1 082050Z 34006KT 03/M03 A3024 RMK A01 T00261031  RH  066%=      5-min Rain = 0
KVP1 082051Z 34004KT 03/M03 A3024 RMK A01 T00261032  RH  065%=      5-min Rain = 0
KVP1 082052Z 34004KT 03/M03 A3024 RMK A01 T00261033  RH  065%=      5-min Rain = 0
KVP1 082053Z 34005KT 03/M03 A3024 RMK A01 T00261033  RH  065%=      5-min Rain = 0
KVP1 082054Z 34004KT 03/M03 A3024 RMK A01 T00261031  RH  066%=      5-min Rain = 0
KVP1 082055Z 35004KT 03/M03 A3024 RMK A01 T00281029  RH  066%=      5-min Rain = 0
KVP1 082056Z 36004KT 03/M03 A3024 RMK A01 T00281030  RH  066%=      5-min Rain = 0
KVP1 082057Z 34003KT 03/M03 A3024 RMK A01 T00281032  RH  064%=      5-min Rain = 0
KVP1 082058Z 34003KT 03/M03 A3024 RMK A01 T00281028  RH  066%=      5-min Rain = 0
KVP1 082059Z 35004KT 03/M03 A3024 RMK A01 T00301027  RH  067%=      5-min Rain = 0.01
KVP1 082100Z 34003KT 03/M03 A3024 RMK A01 T00301029  RH  065%=      5-min Rain = 0
KVP1 082101Z 35005KT 03/M02 A3024 RMK A01 T00311023  RH  067%=      5-min Rain = 0
KVP1 082102Z 35005KT 03/M02 A3024 RMK A01 T00321024  RH  066%=      5-min Rain = 0
KVP1 082103Z 35006KT 03/M03 A3024 RMK A01 T00311029  RH  065%=      5-min Rain = 0
KVP1 082104Z 34006KT 03/M03 A3024 RMK A01 T00311025  RH  066%=      5-min Rain = 0
KVP1 082105Z 35004KT 03/M02 A3024 RMK A01 T00321023  RH  067%=      5-min Rain = 0
KVP1 082106Z 36005KT 03/M03 A3024 RMK A01 T00321025  RH  066%=      5-min Rain = 0
KVP1 082107Z 35004KT 03/M03 A3023 RMK A01 T00321029  RH  064%=      5-min Rain = 0
KVP1 082108Z 33004KT 03/M03 A3023 RMK A01 T00311030  RH  064%=      5-min Rain = 0
KVP1 082109Z 33003KT 03/M03 A3023 RMK A01 T00301029  RH  065%=      5-min Rain = 0
KVP1 082110Z 36003KT 03/M03 A3023 RMK A01 T00311026  RH  066%=      5-min Rain = 0
KVP1 082111Z 35004KT 03/M03 A3023 RMK A01 T00321029  RH  065%=      5-min Rain = 0
KVP1 082112Z 01005KT 03/M03 A3023 RMK A01 T00311031  RH  064%=      5-min Rain = 0
KVP1 082113Z 04003KT 03/M03 A3023 RMK A01 T00321030  RH  064%=      5-min Rain = 0
KVP1 082114Z 00005KT 03/M03 A3023 RMK A01 T00311030  RH  064%=      5-min Rain = 0
KVP1 082115Z 34005KT 03/M03 A3023 RMK A01 T00311027  RH  066%=      5-min Rain = 0
KVP1 082116Z 34004KT 03/M03 A3023 RMK A01 T00321027  RH  065%=      5-min Rain = 0
KVP1 082117Z 34005KT 03/M03 A3023 RMK A01 T00321026  RH  066%=      5-min Rain = 0
KVP1 082118Z 34005KT 03/M03 A3023 RMK A01 T00321029  RH  064%=      5-min Rain = 0
KVP1 082119Z 02006KT 03/M03 A3023 RMK A01 T00321032  RH  063%=      5-min Rain = 0
KVP1 082120Z 02004KT 03/M04 A3023 RMK A01 T00311035  RH  062%=      5-min Rain = 0
KVP1 082121Z 01006KT 03/M03 A3023 RMK A01 T00301034  RH  063%=      5-min Rain = 0
KVP1 082122Z 35005KT 03/M03 A3023 RMK A01 T00311030  RH  064%=      5-min Rain = 0
KVP1 082123Z 35004KT 03/M03 A3024 RMK A01 T00311033  RH  063%=      5-min Rain = 0
KVP1 082124Z 35006KT 03/M03 A3023 RMK A01 T00321031  RH  064%=      5-min Rain = 0
KVP1 082125Z 00005KT 03/M03 A3023 RMK A01 T00331027  RH  065%=      5-min Rain = 0
KVP1 082126Z 01005KT 03/M03 A3023 RMK A01 T00341029  RH  063%=      5-min Rain = 0
KVP1 082127Z 01007KT 03/M03 A3023 RMK A01 T00341030  RH  063%=      5-min Rain = 0
KVP1 082128Z 02006KT 03/M03 A3023 RMK A01 T00331034  RH  062%=      5-min Rain = 0
KVP1 082129Z 03005KT 03/M03 A3023 RMK A01 T00321034  RH  062%=      5-min Rain = 0
KVP1 082130Z 02004KT 03/M03 A3023 RMK A01 T00321033  RH  062%=      5-min Rain = 0
KVP1 082131Z 03006KT 03/M04 A3023 RMK A01 T00321035  RH  061%=      5-min Rain = 0
KVP1 082132Z 05004KT 03/M04 A3023 RMK A01 T00321036  RH  061%=      5-min Rain = 0
KVP1 082133Z 01005KT 03/M03 A3023 RMK A01 T00311032  RH  063%=      5-min Rain = 0
KVP1 082134Z 01004KT 03/M03 A3023 RMK A01 T00331033  RH  062%=      5-min Rain = 0
KVP1 082135Z 02002KT 03/M04 A3023 RMK A01 T00321039  RH  060%=      5-min Rain = 0
KVP1 082136Z 35002KT 03/M04 A3023 RMK A01 T00311038  RH  060%=      5-min Rain = 0
KVP1 082137Z 04002KT 03/M04 A3023 RMK A01 T00321035  RH  061%=      5-min Rain = 0
KVP1 082138Z 01003KT 03/M03 A3023 RMK A01 T00331032  RH  063%=      5-min Rain = 0
KVP1 082139Z 36004KT 03/M03 A3023 RMK A01 T00341032  RH  062%=      5-min Rain = 0
KVP1 082140Z 35003KT 03/M03 A3023 RMK A01 T00341031  RH  062%=      5-min Rain = 0
KVP1 082141Z 33004KT 04/M03 A3023 RMK A01 T00351029  RH  063%=      5-min Rain = 0
KVP1 082142Z 34004KT 04/M03 A3023 RMK A01 T00351032  RH  062%=      5-min Rain = 0
KVP1 082143Z 00006KT 04/M03 A3023 RMK A01 T00351033  RH  061%=      5-min Rain = 0
KVP1 082144Z 02006KT 03/M04 A3023 RMK A01 T00331035  RH  061%=      5-min Rain = 0
KVP1 082145Z 01003KT 03/M04 A3023 RMK A01 T00321035  RH  062%=      5-min Rain = 0
KVP1 082146Z 36005KT 03/M04 A3023 RMK A01 T00311035  RH  062%=      5-min Rain = 0
KVP1 082147Z 01004KT 03/M04 A3023 RMK A01 T00311035  RH  061%=      5-min Rain = 0
KVP1 082148Z 00005KT 03/M03 A3023 RMK A01 T00321034  RH  062%=      5-min Rain = 0
KVP1 082149Z 35005KT 03/M03 A3023 RMK A01 T00341031  RH  063%=      5-min Rain = 0
KVP1 082150Z 34006KT 03/M03 A3023 RMK A01 T00341032  RH  062%=      5-min Rain = 0
KVP1 082151Z 36006KT 04/M03 A3023 RMK A01 T00351031  RH  062%=      5-min Rain = 0
KVP1 082152Z 01007KT 04/M04 A3023 RMK A01 T00351037  RH  059%=      5-min Rain = 0
KVP1 082153Z 00006KT 03/M04 A3023 RMK A01 T00331038  RH  060%=      5-min Rain = 0
KVP1 082154Z 01005KT 03/M04 A3023 RMK A01 T00331036  RH  060%=      5-min Rain = 0
KVP1 082155Z 34006KT 03/M04 A3023 RMK A01 T00331037  RH  060%=      5-min Rain = 0
KVP1 082156Z 36006KT 03/M04 A3023 RMK A01 T00331038  RH  059%=      5-min Rain = 0
KVP1 082157Z 36004KT 03/M04 A3023 RMK A01 T00331038  RH  059%=      5-min Rain = 0
KVP1 082158Z 01004KT 03/M04 A3023 RMK A01 T00331041  RH  059%=      5-min Rain = 0
KVP1 082159Z 36004KT 03/M04 A3023 RMK A01 T00321039  RH  060%=      5-min Rain = 0
KVP1 082200Z 35005KT 03/M04 A3023 RMK A01 T00321040  RH  059%=      5-min Rain = 0
KVP1 082201Z 34004KT 03/M04 A3023 RMK A01 T00321041  RH  059%=      5-min Rain = 0
KVP1 082202Z 33003KT 03/M04 A3023 RMK A01 T00321043  RH  058%=      5-min Rain = 0
KVP1 082203Z 32003KT 03/M04 A3023 RMK A01 T00321041  RH  059%=      5-min Rain = 0
KVP1 082204Z 34003KT 03/M04 A3023 RMK A01 T00321042  RH  058%=      5-min Rain = 0
KVP1 082205Z 01006KT 03/M04 A3023 RMK A01 T00331039  RH  059%=      5-min Rain = 0
KVP1 082206Z 01005KT 03/M04 A3023 RMK A01 T00341040  RH  059%=      5-min Rain = 0
KVP1 082207Z 02005KT 03/M04 A3023 RMK A01 T00331041  RH  058%=      5-min Rain = 0
KVP1 082208Z 02005KT 03/M04 A3023 RMK A01 T00331039  RH  059%=      5-min Rain = 0
KVP1 082209Z 36004KT 03/M04 A3023 RMK A01 T00331040  RH  059%=      5-min Rain = 0
KVP1 082210Z 35004KT 03/M04 A3023 RMK A01 T00321042  RH  058%=      5-min Rain = 0
KVP1 082211Z 35004KT 03/M04 A3023 RMK A01 T00331039  RH  059%=      5-min Rain = 0
KVP1 082212Z 01003KT 03/M04 A3023 RMK A01 T00341037  RH  060%=      5-min Rain = 0
KVP1 082213Z 01004KT 04/M04 A3023 RMK A01 T00351041  RH  058%=      5-min Rain = 0
KVP1 082214Z 01004KT 03/M04 A3023 RMK A01 T00331041  RH  058%=      5-min Rain = 0
KVP1 082215Z 01005KT 03/M04 A3023 RMK A01 T00331042  RH  058%=      5-min Rain = 0
KVP1 082216Z 01005KT 03/M04 A3023 RMK A01 T00321043  RH  058%=      5-min Rain = 0
KVP1 082217Z 01003KT 03/M04 A3023 RMK A01 T00311044  RH  058%=      5-min Rain = 0
KVP1 082218Z 35004KT 03/M04 A3023 RMK A01 T00311043  RH  058%=      5-min Rain = 0
KVP1 082219Z 36003KT 03/M05 A3023 RMK A01 T00311046  RH  057%=      5-min Rain = 0
KVP1 082220Z 00002KT 03/M05 A3023 RMK A01 T00311046  RH  057%=      5-min Rain = 0
KVP1 082221Z 35002KT 03/M05 A3023 RMK A01 T00311045  RH  057%=      5-min Rain = 0
KVP1 082222Z 01003KT 03/M04 A3023 RMK A01 T00321042  RH  058%=      5-min Rain = 0
KVP1 082223Z 36003KT 03/M04 A3023 RMK A01 T00321042  RH  058%=      5-min Rain = 0
KVP1 082224Z 34002KT 03/M05 A3023 RMK A01 T00321046  RH  056%=      5-min Rain = 0
KVP1 082225Z 33002KT 03/M05 A3023 RMK A01 T00331047  RH  056%=      5-min Rain = 0
KVP1 082226Z 32001KT 03/M05 A3023 RMK A01 T00321047  RH  056%=      5-min Rain = 0
KVP1 082227Z 03001KT 03/M04 A3023 RMK A01 T00331043  RH  057%=      5-min Rain = 0
KVP1 082228Z 04002KT 03/M04 A3023 RMK A01 T00331042  RH  058%=      5-min Rain = 0
KVP1 082229Z 03005KT 03/M04 A3023 RMK A01 T00331041  RH  058%=      5-min Rain = 0
KVP1 082230Z 04004KT 03/M04 A3023 RMK A01 T00331041  RH  058%=      5-min Rain = 0
KVP1 082231Z 03003KT 03/M04 A3023 RMK A01 T00331043  RH  058%=      5-min Rain = 0
KVP1 082232Z 04005KT 03/M04 A3023 RMK A01 T00321043  RH  058%=      5-min Rain = 0
KVP1 082233Z 03005KT 03/M05 A3023 RMK A01 T00321045  RH  057%=      5-min Rain = 0
KVP1 082234Z 00004KT 03/M04 A3023 RMK A01 T00311044  RH  058%=      5-min Rain = 0
KVP1 082235Z 34005KT 03/M04 A3023 RMK A01 T00311043  RH  058%=      5-min Rain = 0
KVP1 082236Z 04005KT 03/M05 A3023 RMK A01 T00311045  RH  057%=      5-min Rain = 0
KVP1 082237Z 03005KT 03/M05 A3023 RMK A01 T00311045  RH  057%=      5-min Rain = 0
KVP1 082238Z 03005KT 03/M05 A3023 RMK A01 T00311046  RH  057%=      5-min Rain = 0
KVP1 082239Z 02005KT 03/M05 A3023 RMK A01 T00301046  RH  057%=      5-min Rain = 0
KVP1 082240Z 01004KT 03/M05 A3023 RMK A01 T00301047  RH  057%=      5-min Rain = 0
KVP1 082241Z 00004KT 03/M05 A3023 RMK A01 T00301049  RH  056%=      5-min Rain = 0
KVP1 082242Z 01004KT 03/M05 A3023 RMK A01 T00301048  RH  056%=      5-min Rain = 0
KVP1 082243Z 04004KT 03/M05 A3023 RMK A01 T00301046  RH  057%=      5-min Rain = 0
KVP1 082244Z 04003KT 03/M05 A3023 RMK A01 T00301046  RH  058%=      5-min Rain = 0
KVP1 082245Z 03003KT 03/M05 A3023 RMK A01 T00301047  RH  057%=      5-min Rain = 0
KVP1 082246Z 03002KT 03/M05 A3023 RMK A01 T00301048  RH  057%=      5-min Rain = 0
KVP1 082247Z 03003KT 03/M05 A3023 RMK A01 T00301045  RH  058%=      5-min Rain = 0
KVP1 082248Z 03002KT 03/M05 A3023 RMK A01 T00301048  RH  057%=      5-min Rain = 0
KVP1 082249Z 03003KT 03/M05 A3023 RMK A01 T00301047  RH  057%=      5-min Rain = 0
KVP1 082250Z 03003KT 03/M05 A3023 RMK A01 T00301046  RH  058%=      5-min Rain = 0
KVP1 082251Z 03003KT 03/M05 A3023 RMK A01 T00301045  RH  058%=      5-min Rain = 0
KVP1 082252Z 03003KT 03/M04 A3023 RMK A01 T00301044  RH  058%=      5-min Rain = 0
KVP1 082253Z 03004KT 03/M04 A3023 RMK A01 T00301044  RH  058%=      5-min Rain = 0
KVP1 082254Z 03004KT 03/M05 A3023 RMK A01 T00291045  RH  058%=      5-min Rain = 0
KVP1 082255Z 02004KT 03/M05 A3023 RMK A01 T00291045  RH  058%=      5-min Rain = 0
KVP1 082256Z 04003KT 03/M05 A3023 RMK A01 T00291046  RH  058%=      5-min Rain = 0
KVP1 082257Z 03003KT 03/M05 A3023 RMK A01 T00281046  RH  058%=      5-min Rain = 0
KVP1 082258Z 03003KT 03/M05 A3023 RMK A01 T00281047  RH  058%=      5-min Rain = 0
KVP1 082259Z 04003KT 03/M04 A3023 RMK A01 T00281044  RH  059%=      5-min Rain = 0
KVP1 082300Z 03002KT 03/M05 A3023 RMK A01 T00281045  RH  059%=      5-min Rain = 0
KVP1 082301Z 04002KT 03/M05 A3023 RMK A01 T00271045  RH  059%=      5-min Rain = 0
KVP1 082302Z 04003KT 03/M04 A3023 RMK A01 T00271044  RH  060%=      5-min Rain = 0
KVP1 082303Z 03002KT 03/M05 A3023 RMK A01 T00271045  RH  059%=      5-min Rain = 0
KVP1 082304Z 03002KT 03/M05 A3023 RMK A01 T00261046  RH  059%=      5-min Rain = 0
KVP1 082305Z 02002KT 03/M05 A3023 RMK A01 T00261046  RH  059%=      5-min Rain = 0
KVP1 082306Z 03002KT 03/M05 A3023 RMK A01 T00261046  RH  059%=      5-min Rain = 0
KVP1 082307Z 03002KT 03/M05 A3023 RMK A01 T00261046  RH  059%=      5-min Rain = 0
KVP1 082308Z 03002KT 03/M05 A3023 RMK A01 T00261045  RH  059%=      5-min Rain = 0
KVP1 082309Z 03002KT 03/M05 A3023 RMK A01 T00251046  RH  060%=      5-min Rain = 0
KVP1 082310Z 03002KT 03/M05 A3023 RMK A01 T00251045  RH  060%=      5-min Rain = 0
KVP1 082311Z 04002KT 03/M04 A3023 RMK A01 T00251044  RH  061%=      5-min Rain = 0
KVP1 082312Z 05003KT 02/M04 A3023 RMK A01 T00241043  RH  061%=      5-min Rain = 0
KVP1 082313Z 06003KT 02/M04 A3023 RMK A01 T00231044  RH  061%=      5-min Rain = 0
KVP1 082314Z 06003KT 02/M05 A3024 RMK A01 T00231045  RH  061%=      5-min Rain = 0
KVP1 082315Z 06003KT 02/M05 A3024 RMK A01 T00221045  RH  061%=      5-min Rain = 0
KVP1 082316Z 06003KT 02/M05 A3024 RMK A01 T00211046  RH  061%=      5-min Rain = 0
KVP1 082317Z 06003KT 02/M05 A3024 RMK A01 T00201047  RH  061%=      5-min Rain = 0
KVP1 082318Z 06003KT 02/M05 A3024 RMK A01 T00191048  RH  061%=      5-min Rain = 0
KVP1 082319Z 06003KT 02/M05 A3024 RMK A01 T00191047  RH  062%=      5-min Rain = 0
KVP1 082320Z 06003KT 02/M05 A3024 RMK A01 T00181047  RH  062%=      5-min Rain = 0
KVP1 082321Z 06003KT 02/M05 A3024 RMK A01 T00171046  RH  063%=      5-min Rain = 0
KVP1 082322Z 06004KT 02/M05 A3024 RMK A01 T00161045  RH  064%=      5-min Rain = 0
KVP1 082323Z 06004KT 02/M05 A3024 RMK A01 T00151045  RH  064%=      5-min Rain = 0
KVP1 082324Z 06005KT 01/M05 A3024 RMK A01 T00141045  RH  065%=      5-min Rain = 0
KVP1 082325Z 06005KT 01/M05 A3024 RMK A01 T00121046  RH  066%=      5-min Rain = 0
KVP1 082326Z 07005KT 01/M05 A3024 RMK A01 T00111046  RH  066%=      5-min Rain = 0
KVP1 082327Z 07006KT 01/M05 A3024 RMK A01 T00101046  RH  067%=      5-min Rain = 0
KVP1 082328Z 07005KT 01/M05 A3024 RMK A01 T00091045  RH  067%=      5-min Rain = 0
KVP1 082329Z 07005KT 01/M05 A3024 RMK A01 T00071045  RH  068%=      5-min Rain = 0
KVP1 082330Z 07005KT 01/M04 A3024 RMK A01 T00071044  RH  069%=      5-min Rain = 0
KVP1 082331Z 07004KT 01/M04 A3024 RMK A01 T00051044  RH  069%=      5-min Rain = 0
KVP1 082332Z 07005KT 00/M05 A3024 RMK A01 T00041045  RH  070%=      5-min Rain = 0
KVP1 082333Z 07005KT 00/M05 A3024 RMK A01 T00031045  RH  070%=      5-min Rain = 0
KVP1 082334Z 07005KT 00/M05 A3024 RMK A01 T00021046  RH  070%=      5-min Rain = 0
KVP1 082335Z 08005KT 00/M05 A3024 RMK A01 T00021046  RH  070%=      5-min Rain = 0
KVP1 082336Z 08005KT 00/M05 A3024 RMK A01 T00011046  RH  071%=      5-min Rain = 0
KVP1 082337Z 08005KT 00/05 A3024 RMK A01 T00-00-46  RH  071%=      5-min Rain = 0
KVP1 082338Z 08005KT M00/M05 A3024 RMK A01 T10011046  RH  072%=      5-min Rain = 0
KVP1 082339Z 08005KT M00/M05 A3024 RMK A01 T10011045  RH  072%=      5-min Rain = 0
KVP1 082340Z 08005KT M00/M05 A3024 RMK A01 T10011045  RH  072%=      5-min Rain = 0
KVP1 082341Z 08005KT M00/M05 A3024 RMK A01 T10021045  RH  073%=      5-min Rain = 0
KVP1 082342Z 08004KT M00/M04 A3024 RMK A01 T10011044  RH  073%=      5-min Rain = 0
KVP1 082343Z 08004KT M00/M04 A3024 RMK A01 T10011044  RH  073%=      5-min Rain = 0
KVP1 082344Z 08004KT M00/M04 A3024 RMK A01 T10011043  RH  073%=      5-min Rain = 0
KVP1 082345Z 08004KT M00/M04 A3024 RMK A01 T10021043  RH  074%=      5-min Rain = 0
KVP1 082346Z 08004KT M00/M04 A3024 RMK A01 T10021043  RH  074%=      5-min Rain = 0
KVP1 082347Z 08004KT M00/M04 A3024 RMK A01 T10031043  RH  074%=      5-min Rain = 0
KVP1 082348Z 08004KT M00/M04 A3024 RMK A01 T10041044  RH  074%=      5-min Rain = 0
KVP1 082349Z 08004KT M00/M04 A3024 RMK A01 T10041043  RH  075%=      5-min Rain = 0
KVP1 082350Z 08004KT M01/M04 A3024 RMK A01 T10051044  RH  075%=      5-min Rain = 0
KVP1 082351Z 08005KT M01/M04 A3024 RMK A01 T10051044  RH  075%=      5-min Rain = 0
KVP1 082352Z 08005KT M01/M04 A3024 RMK A01 T10051044  RH  075%=      5-min Rain = 0
KVP1 082353Z 08004KT M01/M04 A3024 RMK A01 T10061044  RH  075%=      5-min Rain = 0
KVP1 082354Z 08004KT M01/M04 A3024 RMK A01 T10061044  RH  075%=      5-min Rain = 0
KVP1 082355Z 08004KT M01/M04 A3024 RMK A01 T10061044  RH  076%=      5-min Rain = 0
KVP1 082356Z 08005KT M01/M04 A3024 RMK A01 T10071044  RH  076%=      5-min Rain = 0
KVP1 082357Z 08005KT M01/M04 A3024 RMK A01 T10071044  RH  076%=      5-min Rain = 0
KVP1 082358Z 08005KT M01/M04 A3024 RMK A01 T10071044  RH  076%=      5-min Rain = 0
KVP1 082359Z 08005KT M01/M04 A3024 RMK A01 T10081044  RH  077%=      5-min Rain = 0
KVP1 090000Z 08005KT M01/M04 A3024 RMK A01 T10091043  RH  077%=      5-min Rain = 0
KVP1 090001Z 08005KT M01/M04 A3024 RMK A01 T10091043  RH  078%=      5-min Rain = 0
KVP1 090002Z 08005KT M01/M04 A3024 RMK A01 T10101043  RH  078%=      5-min Rain = 0
KVP1 090003Z 08005KT M01/M04 A3024 RMK A01 T10111042  RH  079%=      5-min Rain = 0
KVP1 090004Z 08004KT M01/M04 A3024 RMK A01 T10111042  RH  080%=      5-min Rain = 0
KVP1 090005Z 08004KT M01/M04 A3024 RMK A01 T10111042  RH  080%=      5-min Rain = 0
KVP1 090006Z 09004KT M01/M04 A3024 RMK A01 T10111042  RH  080%=      5-min Rain = 0
KVP1 090007Z 09004KT M01/M04 A3024 RMK A01 T10111041  RH  080%=      5-min Rain = 0
KVP1 090008Z 09004KT M01/M04 A3024 RMK A01 T10121040  RH  081%=      5-min Rain = 0
KVP1 090009Z 09004KT M01/M04 A3024 RMK A01 T10121040  RH  081%=      5-min Rain = 0
KVP1 090010Z 09004KT M01/M04 A3025 RMK A01 T10121040  RH  081%=      5-min Rain = 0
KVP1 090011Z 09004KT M01/M04 A3025 RMK A01 T10111040  RH  081%=      5-min Rain = 0
KVP1 090012Z 09004KT M01/M04 A3025 RMK A01 T10111040  RH  081%=      5-min Rain = 0
KVP1 090013Z 09004KT M01/M04 A3025 RMK A01 T10101040  RH  080%=      5-min Rain = 0
KVP1 090014Z 12003KT M01/M04 A3025 RMK A01 T10101040  RH  080%=      5-min Rain = 0
KVP1 090015Z 13004KT M01/M04 A3025 RMK A01 T10111040  RH  081%=      5-min Rain = 0
KVP1 090016Z 11004KT M01/M04 A3025 RMK A01 T10131040  RH  082%=      5-min Rain = 0
KVP1 090017Z 11004KT M01/M04 A3025 RMK A01 T10141042  RH  081%=      5-min Rain = 0
KVP1 090018Z 11004KT M02/M04 A3025 RMK A01 T10151043  RH  081%=      5-min Rain = 0
KVP1 090019Z 11004KT M02/M04 A3025 RMK A01 T10161043  RH  082%=      5-min Rain = 0
KVP1 090020Z 11004KT M02/M04 A3025 RMK A01 T10161043  RH  082%=      5-min Rain = 0
KVP1 090021Z 10004KT M02/M04 A3025 RMK A01 T10161042  RH  082%=      5-min Rain = 0
KVP1 090022Z 10003KT M02/M04 A3025 RMK A01 T10161042  RH  082%=      5-min Rain = 0
KVP1 090023Z 10003KT M02/M04 A3025 RMK A01 T10161042  RH  082%=      5-min Rain = 0
KVP1 090024Z 10003KT M02/M04 A3025 RMK A01 T10161043  RH  082%=      5-min Rain = 0
KVP1 090025Z 10003KT M02/M04 A3025 RMK A01 T10161044  RH  081%=      5-min Rain = 0
KVP1 090026Z 10003KT M02/M04 A3025 RMK A01 T10161044  RH  081%=      5-min Rain = 0
KVP1 090027Z 10003KT M02/M04 A3025 RMK A01 T10161044  RH  081%=      5-min Rain = 0
KVP1 090028Z 10003KT M02/M04 A3025 RMK A01 T10161044  RH  082%=      5-min Rain = 0
KVP1 090029Z 11003KT M02/M04 A3025 RMK A01 T10171043  RH  082%=      5-min Rain = 0
KVP1 090030Z 11003KT M02/M04 A3025 RMK A01 T10161043  RH  082%=      5-min Rain = 0
KVP1 090031Z 10003KT M02/M04 A3025 RMK A01 T10171043  RH  082%=      5-min Rain = 0
KVP1 090032Z 10003KT M02/M04 A3025 RMK A01 T10171043  RH  082%=      5-min Rain = 0
KVP1 090033Z 10003KT M02/M04 A3025 RMK A01 T10161043  RH  082%=      5-min Rain = 0
KVP1 090034Z 10004KT M02/M04 A3025 RMK A01 T10161043  RH  082%=      5-min Rain = 0
KVP1 090035Z 11003KT M02/M04 A3025 RMK A01 T10161043  RH  082%=      5-min Rain = 0
KVP1 090036Z 11003KT M02/M04 A3025 RMK A01 T10161043  RH  082%=      5-min Rain = 0
KVP1 090037Z 11003KT M02/M04 A3025 RMK A01 T10171043  RH  082%=      5-min Rain = 0
KVP1 090038Z 11003KT M02/M04 A3025 RMK A01 T10171043  RH  082%=      5-min Rain = 0
KVP1 090039Z 11003KT M02/M04 A3025 RMK A01 T10171043  RH  082%=      5-min Rain = 0
KVP1 090040Z 12003KT M02/M04 A3025 RMK A01 T10171043  RH  082%=      5-min Rain = 0
KVP1 090041Z 11003KT M02/M04 A3025 RMK A01 T10161043  RH  082%=      5-min Rain = 0
KVP1 090042Z 11003KT M02/M04 A3025 RMK A01 T10161043  RH  082%=      5-min Rain = 0
KVP1 090043Z 12003KT M02/M04 A3025 RMK A01 T10161043  RH  082%=      5-min Rain = 0
KVP1 090044Z 12003KT M02/M04 A3025 RMK A01 T10161042  RH  082%=      5-min Rain = 0
KVP1 090045Z 13003KT M02/M04 A3025 RMK A01 T10161042  RH  083%=      5-min Rain = 0
KVP1 090046Z 13003KT M02/M04 A3025 RMK A01 T10171041  RH  083%=      5-min Rain = 0
KVP1 090047Z 14003KT M02/M04 A3025 RMK A01 T10161041  RH  083%=      5-min Rain = 0
KVP1 090048Z 15003KT M02/M04 A3026 RMK A01 T10161041  RH  083%=      5-min Rain = 0
KVP1 090049Z 16003KT M02/M04 A3026 RMK A01 T10171040  RH  084%=      5-min Rain = 0
KVP1 090050Z 16003KT M02/M04 A3026 RMK A01 T10161040  RH  084%=      5-min Rain = 0
KVP1 090051Z 16003KT M02/M04 A3026 RMK A01 T10171040  RH  084%=      5-min Rain = 0
KVP1 090052Z 16003KT M02/M04 A3026 RMK A01 T10181039  RH  085%=      5-min Rain = 0
KVP1 090053Z 17003KT M02/M04 A3026 RMK A01 T10171038  RH  085%=      5-min Rain = 0
KVP1 090054Z 17003KT M02/M04 A3026 RMK A01 T10161037  RH  086%=      5-min Rain = 0
KVP1 090055Z 17003KT M02/M04 A3026 RMK A01 T10161037  RH  086%=      5-min Rain = 0
KVP1 090056Z 17003KT M02/M04 A3026 RMK A01 T10161037  RH  085%=      5-min Rain = 0
KVP1 090057Z 17003KT M02/M04 A3026 RMK A01 T10171040  RH  085%=      5-min Rain = 0
KVP1 090058Z 17003KT M02/M04 A3026 RMK A01 T10191041  RH  085%=      5-min Rain = 0
KVP1 090059Z 17003KT M02/M04 A3026 RMK A01 T10201042  RH  085%=      5-min Rain = 0
KVP1 090100Z 18003KT M02/M04 A3026 RMK A01 T10201041  RH  086%=      5-min Rain = 0
KVP1 090101Z 18003KT M02/M04 A3026 RMK A01 T10191038  RH  087%=      5-min Rain = 0
KVP1 090102Z 18004KT M02/M04 A3026 RMK A01 T10191037  RH  087%=      5-min Rain = 0
KVP1 090103Z 18004KT M02/M04 A3026 RMK A01 T10191038  RH  087%=      5-min Rain = 0
KVP1 090104Z 18004KT M02/M04 A3026 RMK A01 T10191039  RH  086%=      5-min Rain = 0
KVP1 090105Z 18004KT M02/M04 A3026 RMK A01 T10201039  RH  086%=      5-min Rain = 0
KVP1 090106Z 18004KT M02/M04 A3026 RMK A01 T10201040  RH  086%=      5-min Rain = 0
KVP1 090107Z 18003KT M02/M04 A3026 RMK A01 T10221041  RH  087%=      5-min Rain = 0
KVP1 090108Z 18004KT M02/M04 A3026 RMK A01 T10221041  RH  087%=      5-min Rain = 0
KVP1 090109Z 19004KT M02/M04 A3026 RMK A01 T10221040  RH  088%=      5-min Rain = 0
KVP1 090110Z 19004KT M02/M04 A3027 RMK A01 T10221039  RH  088%=      5-min Rain = 0
KVP1 090111Z 19004KT M02/M04 A3027 RMK A01 T10231040  RH  088%=      5-min Rain = 0
KVP1 090112Z 19004KT M02/M04 A3026 RMK A01 T10231040  RH  088%=      5-min Rain = 0
KVP1 090113Z 19004KT M02/M04 A3026 RMK A01 T10231039  RH  089%=      5-min Rain = 0
KVP1 090114Z 19004KT M02/M04 A3027 RMK A01 T10231039  RH  089%=      5-min Rain = 0
KVP1 090115Z 19004KT M02/M04 A3027 RMK A01 T10231039  RH  089%=      5-min Rain = 0
KVP1 090116Z 19004KT M02/M04 A3027 RMK A01 T10231039  RH  089%=      5-min Rain = 0
KVP1 090117Z 19004KT M02/M04 A3026 RMK A01 T10241040  RH  089%=      5-min Rain = 0
KVP1 090118Z 19004KT M03/M04 A3026 RMK A01 T10251042  RH  088%=      5-min Rain = 0
KVP1 090119Z 19004KT M03/M04 A3026 RMK A01 T10261042  RH  088%=      5-min Rain = 0
KVP1 090120Z 19004KT M03/M04 A3026 RMK A01 T10261042  RH  089%=      5-min Rain = 0
KVP1 090121Z 19004KT M03/M04 A3026 RMK A01 T10271041  RH  090%=      5-min Rain = 0
KVP1 090122Z 19004KT M03/M04 A3026 RMK A01 T10271040  RH  090%=      5-min Rain = 0
KVP1 090123Z 19004KT M03/M04 A3026 RMK A01 T10251038  RH  091%=      5-min Rain = 0
KVP1 090124Z 19004KT M02/M04 A3026 RMK A01 T10241036  RH  091%=      5-min Rain = 0
KVP1 090125Z 19004KT M02/M04 A3026 RMK A01 T10231036  RH  091%=      5-min Rain = 0
KVP1 090126Z 19004KT M02/M04 A3026 RMK A01 T10231036  RH  091%=      5-min Rain = 0
KVP1 090127Z 19004KT M02/M04 A3026 RMK A01 T10231036  RH  091%=      5-min Rain = 0
KVP1 090128Z 19004KT M02/M04 A3026 RMK A01 T10231037  RH  090%=      5-min Rain = 0
KVP1 090129Z 19004KT M02/M04 A3027 RMK A01 T10231036  RH  090%=      5-min Rain = 0
KVP1 090130Z 19004KT M02/M04 A3027 RMK A01 T10221036  RH  090%=      5-min Rain = 0
KVP1 090131Z 19004KT M02/M04 A3027 RMK A01 T10221035  RH  090%=      5-min Rain = 0
KVP1 090132Z 19004KT M02/M04 A3027 RMK A01 T10221036  RH  090%=      5-min Rain = 0
KVP1 090133Z 20004KT M02/M04 A3027 RMK A01 T10231037  RH  090%=      5-min Rain = 0
KVP1 090134Z 20004KT M02/M04 A3027 RMK A01 T10231038  RH  090%=      5-min Rain = 0
KVP1 090135Z 20004KT M02/M04 A3027 RMK A01 T10241039  RH  090%=      5-min Rain = 0
KVP1 090136Z 20004KT M03/M04 A3027 RMK A01 T10251039  RH  090%=      5-min Rain = 0
KVP1 090137Z 20004KT M03/M04 A3027 RMK A01 T10251038  RH  091%=      5-min Rain = 0
KVP1 090138Z 20004KT M03/M04 A3027 RMK A01 T10251038  RH  091%=      5-min Rain = 0
KVP1 090139Z 20004KT M03/M04 A3027 RMK A01 T10251037  RH  091%=      5-min Rain = 0
KVP1 090140Z 20004KT M03/M04 A3027 RMK A01 T10251037  RH  091%=      5-min Rain = 0
KVP1 090141Z 21004KT M02/M04 A3027 RMK A01 T10241036  RH  092%=      5-min Rain = 0
KVP1 090142Z 21004KT M02/M04 A3027 RMK A01 T10241036  RH  092%=      5-min Rain = 0
KVP1 090143Z 21004KT M03/M04 A3027 RMK A01 T10251036  RH  092%=      5-min Rain = 0
KVP1 090144Z 21004KT M03/M04 A3027 RMK A01 T10251037  RH  092%=      5-min Rain = 0
KVP1 090145Z 20004KT M03/M04 A3027 RMK A01 T10251037  RH  092%=      5-min Rain = 0
KVP1 090146Z 20004KT M03/M04 A3027 RMK A01 T10251037  RH  092%=      5-min Rain = 0
KVP1 090147Z 20004KT M03/M04 A3027 RMK A01 T10251037  RH  092%=      5-min Rain = 0
KVP1 090148Z 21004KT M03/M04 A3027 RMK A01 T10251036  RH  092%=      5-min Rain = 0
KVP1 090149Z 21004KT M03/M04 A3027 RMK A01 T10251037  RH  092%=      5-min Rain = 0
KVP1 090150Z 21004KT M03/M04 A3027 RMK A01 T10261037  RH  092%=      5-min Rain = 0
KVP1 090151Z 21004KT M03/M04 A3027 RMK A01 T10261037  RH  092%=      5-min Rain = 0
KVP1 090152Z 21004KT M03/M04 A3027 RMK A01 T10271038  RH  092%=      5-min Rain = 0
KVP1 090153Z 21004KT M03/M04 A3027 RMK A01 T10281039  RH  092%=      5-min Rain = 0
KVP1 090154Z 21004KT M03/M04 A3027 RMK A01 T10291040  RH  092%=      5-min Rain = 0
KVP1 090155Z 21004KT M03/M04 A3027 RMK A01 T10291040  RH  092%=      5-min Rain = 0
KVP1 090156Z 22004KT M03/M04 A3027 RMK A01 T10291039  RH  093%=      5-min Rain = 0
KVP1 090157Z 22004KT M03/M04 A3027 RMK A01 T10291038  RH  093%=      5-min Rain = 0
KVP1 090158Z 22004KT M03/M04 A3027 RMK A01 T10281037  RH  094%=      5-min Rain = 0
KVP1 090159Z 22004KT M03/M04 A3027 RMK A01 T10271035  RH  094%=      5-min Rain = 0
KVP1 090200Z 22004KT M03/M03 A3027 RMK A01 T10271034  RH  094%=      5-min Rain = 0
KVP1 090201Z 22004KT M03/M03 A3028 RMK A01 T10261034  RH  094%=      5-min Rain = 0
KVP1 090202Z 22004KT M03/M03 A3028 RMK A01 T10261034  RH  094%=      5-min Rain = 0
KVP1 090203Z 22004KT M03/M04 A3028 RMK A01 T10271035  RH  094%=      5-min Rain = 0
KVP1 090204Z 22004KT M03/M04 A3028 RMK A01 T10271036  RH  094%=      5-min Rain = 0
KVP1 090205Z 22004KT M03/M04 A3028 RMK A01 T10281036  RH  094%=      5-min Rain = 0
KVP1 090206Z 22004KT M03/M04 A3028 RMK A01 T10281037  RH  094%=      5-min Rain = 0
KVP1 090207Z 22004KT M03/M04 A3028 RMK A01 T10291037  RH  094%=      5-min Rain = 0
KVP1 090208Z 22004KT M03/M04 A3027 RMK A01 T10291037  RH  094%=      5-min Rain = 0
KVP1 090209Z 22004KT M03/M04 A3027 RMK A01 T10291036  RH  095%=      5-min Rain = 0
KVP1 090210Z 22004KT M03/M04 A3027 RMK A01 T10291036  RH  095%=      5-min Rain = 0
KVP1 090211Z 22004KT M03/M04 A3027 RMK A01 T10281035  RH  095%=      5-min Rain = 0
KVP1 090212Z 22004KT M03/M04 A3027 RMK A01 T10281035  RH  095%=      5-min Rain = 0
KVP1 090213Z 22004KT M03/M04 A3027 RMK A01 T10281035  RH  095%=      5-min Rain = 0
KVP1 090214Z 22004KT M03/M04 A3027 RMK A01 T10291036  RH  095%=      5-min Rain = 0
KVP1 090215Z 22003KT M03/M04 A3027 RMK A01 T10291037  RH  095%=      5-min Rain = 0
KVP1 090216Z 22003KT M03/M04 A3027 RMK A01 T10301037  RH  095%=      5-min Rain = 0
KVP1 090217Z 22003KT M03/M04 A3027 RMK A01 T10301037  RH  095%=      5-min Rain = 0
KVP1 090218Z 22003KT M03/M04 A3027 RMK A01 T10301037  RH  095%=      5-min Rain = 0
KVP1 090219Z 22003KT M03/M04 A3028 RMK A01 T10301037  RH  095%=      5-min Rain = 0
KVP1 090220Z 22003KT M03/M04 A3028 RMK A01 T10291036  RH  095%=      5-min Rain = 0
KVP1 090221Z 22003KT M03/M04 A3028 RMK A01 T10291036  RH  095%=      5-min Rain = 0
KVP1 090222Z 22003KT M03/M04 A3028 RMK A01 T10291036  RH  094%=      5-min Rain = 0
KVP1 090223Z 22003KT M03/M04 A3028 RMK A01 T10291037  RH  094%=      5-min Rain = 0
KVP1 090224Z 22002KT M03/M04 A3028 RMK A01 T10291037  RH  094%=      5-min Rain = 0
KVP1 090225Z 22002KT M03/M04 A3028 RMK A01 T10281036  RH  094%=      5-min Rain = 0
KVP1 090226Z 22003KT M03/M04 A3028 RMK A01 T10281036  RH  094%=      5-min Rain = 0
KVP1 090227Z 22003KT M03/M04 A3028 RMK A01 T10281036  RH  094%=      5-min Rain = 0
KVP1 090228Z 23003KT M03/M04 A3028 RMK A01 T10291037  RH  094%=      5-min Rain = 0
KVP1 090229Z 23003KT M03/M04 A3028 RMK A01 T10291037  RH  094%=      5-min Rain = 0
KVP1 090230Z 23003KT M03/M04 A3028 RMK A01 T10291038  RH  094%=      5-min Rain = 0
KVP1 090231Z 23003KT M03/M04 A3028 RMK A01 T10291037  RH  094%=      5-min Rain = 0
KVP1 090232Z 23003KT M03/M04 A3028 RMK A01 T10301037  RH  094%=      5-min Rain = 0
KVP1 090233Z 23003KT M03/M04 A3028 RMK A01 T10301037  RH  095%=      5-min Rain = 0
KVP1 090234Z 23003KT M03/M04 A3028 RMK A01 T10301037  RH  095%=      5-min Rain = 0
KVP1 090235Z 23003KT M03/M04 A3028 RMK A01 T10301037  RH  095%=      5-min Rain = 0
KVP1 090236Z 23003KT M03/M04 A3028 RMK A01 T10301037  RH  095%=      5-min Rain = 0
KVP1 090237Z 23003KT M03/M04 A3028 RMK A01 T10301037  RH  095%=      5-min Rain = 0
KVP1 090238Z 23003KT M03/M04 A3028 RMK A01 T10311038  RH  095%=      5-min Rain = 0
KVP1 090239Z 23003KT M03/M04 A3028 RMK A01 T10311038  RH  095%=      5-min Rain = 0
KVP1 090240Z 23003KT M03/M04 A3028 RMK A01 T10311038  RH  095%=      5-min Rain = 0
KVP1 090241Z 23003KT M03/M04 A3028 RMK A01 T10301036  RH  096%=      5-min Rain = 0
KVP1 090242Z 23003KT M03/M04 A3028 RMK A01 T10301036  RH  096%=      5-min Rain = 0
KVP1 090243Z 23003KT M03/M04 A3028 RMK A01 T10301036  RH  096%=      5-min Rain = 0
KVP1 090244Z 23003KT M03/M04 A3028 RMK A01 T10301035  RH  096%=      5-min Rain = 0
KVP1 090245Z 23003KT M03/M04 A3028 RMK A01 T10301035  RH  096%=      5-min Rain = 0
KVP1 090246Z 23003KT M03/M04 A3028 RMK A01 T10291035  RH  096%=      5-min Rain = 0
KVP1 090247Z 23003KT M03/M04 A3027 RMK A01 T10291035  RH  096%=      5-min Rain = 0
KVP1 090248Z 23003KT M03/M04 A3027 RMK A01 T10291035  RH  096%=      5-min Rain = 0
KVP1 090249Z 23002KT M03/M04 A3027 RMK A01 T10291035  RH  096%=      5-min Rain = 0
KVP1 090250Z 24002KT M03/M04 A3027 RMK A01 T10291035  RH  096%=      5-min Rain = 0
KVP1 090251Z 24002KT M03/M04 A3027 RMK A01 T10291035  RH  096%=      5-min Rain = 0
KVP1 090252Z 23002KT M03/M04 A3027 RMK A01 T10291035  RH  096%=      5-min Rain = 0
KVP1 090253Z 23003KT M03/M04 A3028 RMK A01 T10291036  RH  095%=      5-min Rain = 0
KVP1 090254Z 23003KT M03/M04 A3028 RMK A01 T10291036  RH  095%=      5-min Rain = 0
KVP1 090255Z 23003KT M03/M04 A3028 RMK A01 T10291036  RH  095%=      5-min Rain = 0
KVP1 090256Z 23003KT M03/M04 A3028 RMK A01 T10291036  RH  095%=      5-min Rain = 0
KVP1 090257Z 23003KT M03/M04 A3028 RMK A01 T10291036  RH  095%=      5-min Rain = 0
KVP1 090258Z 23003KT M03/M04 A3028 RMK A01 T10291036  RH  095%=      5-min Rain = 0
KVP1 090259Z 23003KT M03/M04 A3028 RMK A01 T10291036  RH  095%=      5-min Rain = 0
KVP1 090300Z 23003KT M03/M04 A3028 RMK A01 T10291037  RH  095%=      5-min Rain = 0
KVP1 090301Z 23003KT M03/M04 A3028 RMK A01 T10301037  RH  095%=      5-min Rain = 0
KVP1 090302Z 23003KT M03/M04 A3028 RMK A01 T10301037  RH  095%=      5-min Rain = 0
KVP1 090303Z 23003KT M03/M04 A3028 RMK A01 T10301038  RH  095%=      5-min Rain = 0
KVP1 090304Z 23003KT M03/M04 A3028 RMK A01 T10301037  RH  095%=      5-min Rain = 0
KVP1 090305Z 23003KT M03/M04 A3028 RMK A01 T10311038  RH  095%=      5-min Rain = 0
KVP1 090306Z 23003KT M03/M04 A3028 RMK A01 T10311038  RH  095%=      5-min Rain = 0
KVP1 090307Z 23003KT M03/M04 A3028 RMK A01 T10311038  RH  095%=      5-min Rain = 0
KVP1 090308Z 23003KT M03/M04 A3028 RMK A01 T10311038  RH  095%=      5-min Rain = 0
KVP1 090309Z 23003KT M03/M04 A3028 RMK A01 T10311037  RH  095%=      5-min Rain = 0
KVP1 090310Z 23003KT M03/M04 A3028 RMK A01 T10311037  RH  095%=      5-min Rain = 0
KVP1 090311Z 23004KT M03/M04 A3028 RMK A01 T10311037  RH  095%=      5-min Rain = 0
KVP1 090312Z 24004KT M03/M04 A3028 RMK A01 T10311038  RH  095%=      5-min Rain = 0
KVP1 090313Z 24004KT M03/M04 A3028 RMK A01 T10311038  RH  095%=      5-min Rain = 0
KVP1 090314Z 24004KT M03/M04 A3028 RMK A01 T10321039  RH  095%=      5-min Rain = 0
KVP1 090315Z 24004KT M03/M04 A3028 RMK A01 T10331040  RH  094%=      5-min Rain = 0
KVP1 090316Z 24003KT M03/M04 A3028 RMK A01 T10341042  RH  094%=      5-min Rain = 0
KVP1 090317Z 24003KT M04/M04 A3028 RMK A01 T10351043  RH  094%=      5-min Rain = 0
KVP1 090318Z 24003KT M04/M05 A3027 RMK A01 T10361045  RH  094%=      5-min Rain = 0
KVP1 090319Z 24003KT M04/M04 A3027 RMK A01 T10361044  RH  094%=      5-min Rain = 0
KVP1 090320Z 25003KT M04/M04 A3027 RMK A01 T10351043  RH  095%=      5-min Rain = 0
KVP1 090321Z 26004KT M03/M04 A3028 RMK A01 T10341041  RH  095%=      5-min Rain = 0
KVP1 090322Z 26004KT M03/M04 A3028 RMK A01 T10341041  RH  095%=      5-min Rain = 0
KVP1 090323Z 26004KT M03/M04 A3028 RMK A01 T10341042  RH  094%=      5-min Rain = 0
KVP1 090324Z 26004KT M03/M04 A3028 RMK A01 T10341043  RH  094%=      5-min Rain = 0
KVP1 090325Z 26004KT M03/M04 A3028 RMK A01 T10341043  RH  093%=      5-min Rain = 0
KVP1 090326Z 26004KT M03/M04 A3028 RMK A01 T10341044  RH  093%=      5-min Rain = 0
KVP1 090327Z 26004KT M03/M05 A3028 RMK A01 T10341045  RH  093%=      5-min Rain = 0
KVP1 090328Z 26004KT M04/M05 A3028 RMK A01 T10351046  RH  092%=      5-min Rain = 0
KVP1 090329Z 26004KT M04/M05 A3028 RMK A01 T10361047  RH  092%=      5-min Rain = 0
KVP1 090330Z 25004KT M04/M05 A3028 RMK A01 T10361047  RH  093%=      5-min Rain = 0
KVP1 090331Z 25005KT M04/M05 A3028 RMK A01 T10371047  RH  093%=      5-min Rain = 0
KVP1 090332Z 25005KT M04/M05 A3028 RMK A01 T10361046  RH  093%=      5-min Rain = 0
KVP1 090333Z 25005KT M04/M05 A3028 RMK A01 T10371047  RH  093%=      5-min Rain = 0
KVP1 090334Z 25005KT M04/M05 A3028 RMK A01 T10381048  RH  093%=      5-min Rain = 0
KVP1 090335Z 25005KT M04/M05 A3028 RMK A01 T10391049  RH  093%=      5-min Rain = 0
KVP1 090336Z 25005KT M04/M05 A3028 RMK A01 T10411051  RH  093%=      5-min Rain = 0
KVP1 090337Z 26004KT M04/M05 A3028 RMK A01 T10421052  RH  093%=      5-min Rain = 0
KVP1 090338Z 25005KT M04/M05 A3028 RMK A01 T10421052  RH  093%=      5-min Rain = 0
KVP1 090339Z 25005KT M04/M05 A3028 RMK A01 T10421052  RH  093%=      5-min Rain = 0
KVP1 090340Z 25005KT M04/M05 A3028 RMK A01 T10431052  RH  094%=      5-min Rain = 0
KVP1 090341Z 25005KT M04/M05 A3028 RMK A01 T10441053  RH  094%=      5-min Rain = 0
KVP1 090342Z 25005KT M05/M05 A3028 RMK A01 T10451054  RH  094%=      5-min Rain = 0
KVP1 090343Z 25006KT M05/M05 A3028 RMK A01 T10461054  RH  094%=      5-min Rain = 0
KVP1 090344Z 25006KT M05/M06 A3028 RMK A01 T10471056  RH  094%=      5-min Rain = 0
KVP1 090345Z 25006KT M05/M06 A3028 RMK A01 T10481057  RH  094%=      5-min Rain = 0
KVP1 090346Z 25007KT M05/M06 A3028 RMK A01 T10491058  RH  094%=      5-min Rain = 0
KVP1 090347Z 25007KT M05/M06 A3028 RMK A01 T10501059  RH  094%=      5-min Rain = 0
KVP1 090348Z 25007KT M05/M06 A3028 RMK A01 T10511059  RH  094%=      5-min Rain = 0
KVP1 090349Z 25006KT M05/M06 A3028 RMK A01 T10511059  RH  094%=      5-min Rain = 0
KVP1 090350Z 24006KT M05/M06 A3028 RMK A01 T10511059  RH  094%=      5-min Rain = 0
KVP1 090351Z 24006KT M05/M06 A3028 RMK A01 T10501058  RH  094%=      5-min Rain = 0
KVP1 090352Z 25006KT M05/M06 A3028 RMK A01 T10501057  RH  094%=      5-min Rain = 0
KVP1 090353Z 25006KT M05/M06 A3028 RMK A01 T10501057  RH  094%=      5-min Rain = 0
KVP1 090354Z 25006KT M05/M06 A3028 RMK A01 T10501058  RH  094%=      5-min Rain = 0
KVP1 090355Z 25005KT M05/M06 A3028 RMK A01 T10501059  RH  094%=      5-min Rain = 0
KVP1 090356Z 25005KT M05/M06 A3028 RMK A01 T10521061  RH  093%=      5-min Rain = 0
KVP1 090357Z 25005KT M05/M06 A3028 RMK A01 T10521061  RH  093%=      5-min Rain = 0
KVP1 090358Z 25005KT M05/M06 A3028 RMK A01 T10521061  RH  094%=      5-min Rain = 0
KVP1 090359Z 25005KT M05/M06 A3028 RMK A01 T10511058  RH  094%=      5-min Rain = 0
KVP1 090400Z 25005KT M05/M06 A3028 RMK A01 T10501057  RH  094%=      5-min Rain = 0
KVP1 090401Z 25005KT M05/M06 A3028 RMK A01 T10501057  RH  094%=      5-min Rain = 0
KVP1 090402Z 25005KT M05/M06 A3028 RMK A01 T10491056  RH  095%=      5-min Rain = 0
KVP1 090403Z 25005KT M05/M06 A3028 RMK A01 T10481055  RH  095%=      5-min Rain = 0
KVP1 090404Z 25005KT M05/M06 A3028 RMK A01 T10481055  RH  095%=      5-min Rain = 0
KVP1 090405Z 25006KT M05/M05 A3028 RMK A01 T10481054  RH  095%=      5-min Rain = 0
KVP1 090406Z 25006KT M05/M05 A3028 RMK A01 T10461053  RH  095%=      5-min Rain = 0
KVP1 090407Z 25006KT M05/M05 A3028 RMK A01 T10461052  RH  095%=      5-min Rain = 0
KVP1 090408Z 25006KT M05/M05 A3028 RMK A01 T10461052  RH  095%=      5-min Rain = 0
KVP1 090409Z 25006KT M05/M05 A3028 RMK A01 T10461053  RH  095%=      5-min Rain = 0
KVP1 090410Z 25006KT M05/M06 A3028 RMK A01 T10461055  RH  094%=      5-min Rain = 0
KVP1 090411Z 25006KT M05/M06 A3029 RMK A01 T10471056  RH  094%=      5-min Rain = 0
KVP1 090412Z 25006KT M05/M06 A3029 RMK A01 T10481058  RH  093%=      5-min Rain = 0
KVP1 090413Z 25006KT M05/M06 A3029 RMK A01 T10501060  RH  093%=      5-min Rain = 0
KVP1 090414Z 25006KT M05/M06 A3029 RMK A01 T10511061  RH  093%=      5-min Rain = 0
KVP1 090415Z 26005KT M05/M06 A3029 RMK A01 T10521062  RH  093%=      5-min Rain = 0
KVP1 090416Z 26005KT M05/M06 A3029 RMK A01 T10531063  RH  093%=      5-min Rain = 0
KVP1 090417Z 26005KT M05/M06 A3029 RMK A01 T10531063  RH  093%=      5-min Rain = 0
KVP1 090418Z 26006KT M05/M06 A3029 RMK A01 T10531062  RH  093%=      5-min Rain = 0
KVP1 090419Z 26006KT M05/M06 A3029 RMK A01 T10531061  RH  094%=      5-min Rain = 0
KVP1 090420Z 26007KT M05/M06 A3029 RMK A01 T10531061  RH  094%=      5-min Rain = 0
KVP1 090421Z 25007KT M05/M06 A3029 RMK A01 T10521061  RH  094%=      5-min Rain = 0
KVP1 090422Z 25008KT M05/M06 A3029 RMK A01 T10521061  RH  094%=      5-min Rain = 0
KVP1 090423Z 25008KT M05/M06 A3029 RMK A01 T10521060  RH  094%=      5-min Rain = 0
KVP1 090424Z 25008KT M05/M06 A3029 RMK A01 T10511059  RH  095%=      5-min Rain = 0
KVP1 090425Z 25008KT M05/M06 A3029 RMK A01 T10501057  RH  095%=      5-min Rain = 0
KVP1 090426Z 25007KT M05/M06 A3029 RMK A01 T10481055  RH  095%=      5-min Rain = 0
KVP1 090427Z 26008KT M05/M05 A3029 RMK A01 T10471053  RH  095%=      5-min Rain = 0
KVP1 090428Z 26006KT M04/M05 A3029 RMK A01 T10441050  RH  096%=      5-min Rain = 0
KVP1 090429Z 26006KT M04/M05 A3029 RMK A01 T10421048  RH  096%=      5-min Rain = 0
KVP1 090430Z 26006KT M04/M05 A3029 RMK A01 T10421048  RH  096%=      5-min Rain = 0
KVP1 090431Z 26006KT M04/M05 A3029 RMK A01 T10411047  RH  095%=      5-min Rain = 0
KVP1 090432Z 26006KT M04/M05 A3029 RMK A01 T10411048  RH  095%=      5-min Rain = 0
KVP1 090433Z 26006KT M04/M05 A3029 RMK A01 T10421049  RH  094%=      5-min Rain = 0
KVP1 090434Z 26006KT M04/M05 A3029 RMK A01 T10421050  RH  094%=      5-min Rain = 0
KVP1 090435Z 26006KT M04/M05 A303 RMK A01 T10431051  RH  094%=      5-min Rain = 0
KVP1 090436Z 27005KT M04/M05 A3029 RMK A01 T10431052  RH  094%=      5-min Rain = 0
KVP1 090437Z 27005KT M04/M05 A3029 RMK A01 T10441053  RH  094%=      5-min Rain = 0
KVP1 090438Z 27005KT M05/M05 A3029 RMK A01 T10451053  RH  094%=      5-min Rain = 0
KVP1 090439Z 27005KT M05/M05 A303 RMK A01 T10451053  RH  094%=      5-min Rain = 0
KVP1 090440Z 27005KT M05/M05 A3029 RMK A01 T10451053  RH  094%=      5-min Rain = 0
KVP1 090441Z 27004KT M05/M05 A3029 RMK A01 T10451054  RH  094%=      5-min Rain = 0
KVP1 090442Z 27005KT M05/M06 A303 RMK A01 T10461055  RH  094%=      5-min Rain = 0
KVP1 090443Z 27005KT M05/M06 A303 RMK A01 T10461055  RH  094%=      5-min Rain = 0
KVP1 090444Z 27005KT M05/M06 A303 RMK A01 T10461055  RH  094%=      5-min Rain = 0
KVP1 090445Z 27005KT M05/M06 A303 RMK A01 T10471055  RH  094%=      5-min Rain = 0
KVP1 090446Z 27005KT M05/M06 A303 RMK A01 T10471056  RH  094%=      5-min Rain = 0
KVP1 090447Z 27005KT M05/M06 A303 RMK A01 T10481057  RH  093%=      5-min Rain = 0
KVP1 090448Z 27005KT M05/M06 A303 RMK A01 T10491058  RH  093%=      5-min Rain = 0
KVP1 090449Z 27005KT M05/M06 A303 RMK A01 T10501060  RH  093%=      5-min Rain = 0
KVP1 090450Z 27005KT M05/M06 A303 RMK A01 T10521061  RH  093%=      5-min Rain = 0
KVP1 090451Z 27005KT M05/M06 A303 RMK A01 T10531063  RH  093%=      5-min Rain = 0
KVP1 090452Z 27005KT M05/M06 A303 RMK A01 T10541064  RH  093%=      5-min Rain = 0
KVP1 090453Z 27005KT M05/M06 A303 RMK A01 T10541063  RH  093%=      5-min Rain = 0
KVP1 090454Z 27005KT M05/M06 A303 RMK A01 T10541063  RH  093%=      5-min Rain = 0
KVP1 090455Z 27005KT M05/M06 A303 RMK A01 T10541063  RH  094%=      5-min Rain = 0
KVP1 090456Z 27005KT M05/M06 A303 RMK A01 T10541063  RH  094%=      5-min Rain = 0
KVP1 090457Z 27005KT M05/M06 A303 RMK A01 T10541063  RH  093%=      5-min Rain = 0
KVP1 090458Z 27005KT M06/M06 A303 RMK A01 T10551064  RH  093%=      5-min Rain = 0
KVP1 090459Z 27005KT M06/M07 A303 RMK A01 T10561065  RH  093%=      5-min Rain = 0
KVP1 090500Z 27005KT M06/M07 A303 RMK A01 T10561065  RH  093%=      5-min Rain = 0
KVP1 090501Z 27005KT M06/M07 A303 RMK A01 T10571066  RH  093%=      5-min Rain = 0
KVP1 090502Z 27005KT M06/M07 A303 RMK A01 T10571066  RH  093%=      5-min Rain = 0
KVP1 090503Z 27005KT M06/M07 A303 RMK A01 T10581067  RH  093%=      5-min Rain = 0
KVP1 090504Z 27005KT M06/M07 A303 RMK A01 T10571066  RH  093%=      5-min Rain = 0
KVP1 090505Z 27006KT M06/M07 A303 RMK A01 T10581066  RH  094%=      5-min Rain = 0
KVP1 090506Z 27005KT M06/M07 A303 RMK A01 T10571065  RH  094%=      5-min Rain = 0
KVP1 090507Z 27005KT M06/M07 A303 RMK A01 T10571065  RH  094%=      5-min Rain = 0
KVP1 090508Z 27005KT M06/M07 A3031 RMK A01 T10571065  RH  094%=      5-min Rain = 0
KVP1 090509Z 27005KT M06/M07 A3031 RMK A01 T10571065  RH  094%=      5-min Rain = 0
KVP1 090510Z 27005KT M06/M07 A3031 RMK A01 T10571066  RH  094%=      5-min Rain = 0
KVP1 090511Z 27005KT M06/M07 A303 RMK A01 T10581066  RH  094%=      5-min Rain = 0
KVP1 090512Z 27005KT M06/M07 A303 RMK A01 T10571065  RH  094%=      5-min Rain = 0
KVP1 090513Z 27004KT M06/M07 A303 RMK A01 T10571065  RH  094%=      5-min Rain = 0
KVP1 090514Z 28004KT M06/M07 A303 RMK A01 T10571065  RH  094%=      5-min Rain = 0
KVP1 090515Z 28004KT M06/M06 A303 RMK A01 T10571064  RH  094%=      5-min Rain = 0
KVP1 090516Z 28005KT M06/M06 A303 RMK A01 T10561063  RH  095%=      5-min Rain = 0
KVP1 090517Z 28005KT M06/M06 A303 RMK A01 T10561063  RH  095%=      5-min Rain = 0
KVP1 090518Z 27005KT M06/M06 A303 RMK A01 T10551062  RH  095%=      5-min Rain = 0
KVP1 090519Z 27005KT M06/M06 A303 RMK A01 T10551062  RH  095%=      5-min Rain = 0
KVP1 090520Z 27005KT M05/M06 A303 RMK A01 T10541061  RH  095%=      5-min Rain = 0
KVP1 090521Z 27004KT M05/M06 A303 RMK A01 T10541062  RH  095%=      5-min Rain = 0
KVP1 090522Z 27004KT M05/M06 A303 RMK A01 T10541062  RH  095%=      5-min Rain = 0
KVP1 090523Z 28004KT M06/M06 A303 RMK A01 T10551062  RH  095%=      5-min Rain = 0
KVP1 090524Z 28004KT M06/M06 A303 RMK A01 T10551063  RH  094%=      5-min Rain = 0
KVP1 090525Z 28004KT M06/M06 A303 RMK A01 T10551062  RH  094%=      5-min Rain = 0
KVP1 090526Z 28004KT M05/M06 A303 RMK A01 T10541062  RH  095%=      5-min Rain = 0
KVP1 090527Z 28004KT M05/M06 A303 RMK A01 T10541061  RH  095%=      5-min Rain = 0
KVP1 090528Z 28003KT M05/M06 A303 RMK A01 T10531060  RH  095%=      5-min Rain = 0
KVP1 090529Z 28004KT M05/M06 A303 RMK A01 T10521059  RH  095%=      5-min Rain = 0
KVP1 090530Z 28004KT M05/M06 A303 RMK A01 T10511057  RH  096%=      5-min Rain = 0
KVP1 090531Z 28004KT M05/M06 A303 RMK A01 T10501056  RH  096%=      5-min Rain = 0
KVP1 090532Z 29004KT M05/M06 A303 RMK A01 T10491055  RH  096%=      5-min Rain = 0
KVP1 090533Z 29004KT M05/M06 A303 RMK A01 T10491055  RH  096%=      5-min Rain = 0
KVP1 090534Z 29004KT M05/M05 A303 RMK A01 T10491054  RH  096%=      5-min Rain = 0
KVP1 090535Z 29004KT M05/M05 A303 RMK A01 T10481054  RH  096%=      5-min Rain = 0
KVP1 090536Z 29004KT M05/M05 A303 RMK A01 T10481054  RH  096%=      5-min Rain = 0
KVP1 090537Z 29004KT M05/M05 A303 RMK A01 T10481053  RH  096%=      5-min Rain = 0
KVP1 090538Z 29004KT M05/M05 A303 RMK A01 T10471053  RH  096%=      5-min Rain = 0
KVP1 090539Z 29004KT M05/M05 A303 RMK A01 T10481054  RH  096%=      5-min Rain = 0
KVP1 090540Z 29004KT M05/M05 A303 RMK A01 T10481054  RH  095%=      5-min Rain = 0
KVP1 090541Z 29004KT M05/M05 A303 RMK A01 T10471053  RH  095%=      5-min Rain = 0
KVP1 090542Z 29004KT M05/M05 A303 RMK A01 T10471054  RH  095%=      5-min Rain = 0
KVP1 090543Z 28004KT M05/M05 A303 RMK A01 T10471054  RH  095%=      5-min Rain = 0
KVP1 090544Z 28004KT M05/M05 A303 RMK A01 T10471053  RH  095%=      5-min Rain = 0
KVP1 090545Z 29004KT M05/M05 A303 RMK A01 T10471054  RH  095%=      5-min Rain = 0
KVP1 090546Z 29004KT M05/M06 A303 RMK A01 T10481056  RH  095%=      5-min Rain = 0
KVP1 090547Z 29004KT M05/M06 A303 RMK A01 T10491056  RH  094%=      5-min Rain = 0
KVP1 090548Z 29004KT M05/M06 A303 RMK A01 T10491056  RH  095%=      5-min Rain = 0
KVP1 090549Z 29005KT M05/M06 A303 RMK A01 T10491056  RH  095%=      5-min Rain = 0
KVP1 090550Z 29005KT M05/M06 A303 RMK A01 T10491056  RH  095%=      5-min Rain = 0
KVP1 090551Z 29005KT M05/M06 A303 RMK A01 T10491057  RH  095%=      5-min Rain = 0
KVP1 090552Z 29005KT M05/M06 A303 RMK A01 T10511058  RH  094%=      5-min Rain = 0
KVP1 090553Z 29005KT M05/M06 A303 RMK A01 T10521061  RH  094%=      5-min Rain = 0
KVP1 090554Z 28005KT M05/M06 A303 RMK A01 T10541064  RH  093%=      5-min Rain = 0
KVP1 090555Z 28004KT M06/M07 A303 RMK A01 T10561066  RH  093%=      5-min Rain = 0
KVP1 090556Z 28004KT M06/M07 A303 RMK A01 T10571067  RH  093%=      5-min Rain = 0
KVP1 090557Z 28004KT M06/M07 A303 RMK A01 T10581067  RH  093%=      5-min Rain = 0
KVP1 090558Z 28004KT M06/M07 A303 RMK A01 T10581067  RH  093%=      5-min Rain = 0
KVP1 090559Z 29004KT M06/M07 A3031 RMK A01 T10581067  RH  094%=      5-min Rain = 0

Page generated in 0.3132 seconds.